Time,TemperatureF,DewpointF,PressureIn,WindDirection,WindDirectionDegrees,WindSpeedMPH,WindSpeedGustMPH,Humidity,HourlyPrecipIn,Conditions,Clouds,dailyrainin,SoftwareType,DateUTC
2013-01-26 00:00:00,61.2,59.2,30.12,ESE,107,0.0,0.0,93,0.00,,,0.00,Wunderground v.1.15,2013-01-26 05:00:00,
2013-01-26 00:02:00,61.2,59.5,30.12,ESE,107,0.0,0.0,94,0.00,,,0.00,Wunderground v.1.15,2013-01-26 05:02:00,
2013-01-26 00:03:00,61.2,59.5,30.12,ESE,107,0.0,0.0,94,0.00,,,0.00,Wunderground v.1.15,2013-01-26 05:03:00,
2013-01-26 00:05:00,61.2,59.8,30.12,ESE,107,0.0,0.0,95,0.00,,,0.00,Wunderground v.1.15,2013-01-26 05:05:00,
2013-01-26 00:08:00,61.2,59.8,30.12,ESE,107,0.0,0.0,95,0.00,,,0.00,Wunderground v.1.15,2013-01-26 05:08:00,
2013-01-26 00:09:00,61.2,60.1,30.12,ESE,107,0.0,0.0,96,0.00,,,0.00,Wunderground v.1.15,2013-01-26 05:09:00,
2013-01-26 00:10:00,61.2,60.1,30.12,ESE,107,0.0,0.0,96,0.00,,,0.00,Wunderground v.1.15,2013-01-26 05:10:00,
2013-01-26 00:11:00,61.2,60.1,30.12,ESE,107,0.0,0.0,96,0.00,,,0.00,Wunderground v.1.15,2013-01-26 05:11:00,
2013-01-26 00:17:00,61.0,60.4,30.12,ESE,107,0.0,0.0,98,0.00,,,0.00,Wunderground v.1.15,2013-01-26 05:17:00,
2013-01-26 00:18:00,61.2,60.6,30.12,ESE,107,0.0,0.0,98,0.00,,,0.00,Wunderground v.1.15,2013-01-26 05:18:00,
2013-01-26 00:19:00,61.2,60.9,30.12,ESE,107,0.0,0.0,99,0.00,,,0.00,Wunderground v.1.15,2013-01-26 05:19:00,
2013-01-26 00:22:00,61.2,60.9,30.12,ESE,107,0.0,0.0,99,0.00,,,0.00,Wunderground v.1.15,2013-01-26 05:22:00,
2013-01-26 00:23:00,61.2,60.9,30.12,ESE,107,0.0,0.0,99,0.00,,,0.00,Wunderground v.1.15,2013-01-26 05:23:00,
2013-01-26 00:24:00,61.2,60.9,30.12,ESE,107,0.0,0.0,99,0.00,,,0.00,Wunderground v.1.15,2013-01-26 05:24:00,
2013-01-26 00:28:00,60.9,60.6,30.12,ESE,107,0.0,0.0,99,0.00,,,0.00,Wunderground v.1.15,2013-01-26 05:28:00,
2013-01-26 00:29:00,60.9,60.9,30.12,ESE,107,0.0,0.0,100,0.00,,,0.00,Wunderground v.1.15,2013-01-26 05:29:00,
2013-01-26 00:32:00,61.0,61.0,30.13,ESE,107,0.0,0.0,100,0.00,,,0.00,Wunderground v.1.15,2013-01-26 05:32:00,
2013-01-26 00:34:00,61.0,61.0,30.13,ESE,107,0.0,0.0,100,0.00,,,0.00,Wunderground v.1.15,2013-01-26 05:34:00,
2013-01-26 00:35:00,61.0,61.0,30.13,ESE,107,0.0,0.0,100,0.00,,,0.00,Wunderground v.1.15,2013-01-26 05:35:00,
2013-01-26 00:37:00,61.2,61.2,30.13,ESE,107,0.0,0.0,100,0.00,,,0.00,Wunderground v.1.15,2013-01-26 05:37:00,
2013-01-26 00:38:00,61.3,61.3,30.13,ESE,107,0.0,0.0,100,0.00,,,0.00,Wunderground v.1.15,2013-01-26 05:38:00,
2013-01-26 00:42:00,61.5,61.5,30.13,ESE,107,0.0,0.0,100,0.00,,,0.00,Wunderground v.1.15,2013-01-26 05:42:00,
2013-01-26 00:44:00,61.5,61.5,30.13,ESE,107,0.0,0.0,100,0.00,,,0.00,Wunderground v.1.15,2013-01-26 05:44:00,
2013-01-26 00:45:00,61.5,61.5,30.13,ESE,107,0.0,0.0,100,0.00,,,0.00,Wunderground v.1.15,2013-01-26 05:45:00,
2013-01-26 00:46:00,61.5,61.5,30.13,ESE,107,0.0,0.0,100,0.00,,,0.00,Wunderground v.1.15,2013-01-26 05:46:00,
2013-01-26 00:49:00,62.0,62.0,30.13,ESE,107,0.0,0.0,100,0.00,,,0.00,Wunderground v.1.15,2013-01-26 05:49:00,
2013-01-26 00:52:00,62.1,62.1,30.13,ESE,107,0.0,0.0,100,0.00,,,0.00,Wunderground v.1.15,2013-01-26 05:52:00,
2013-01-26 00:54:00,62.1,62.1,30.13,ESE,107,0.0,0.0,100,0.00,,,0.00,Wunderground v.1.15,2013-01-26 05:54:00,
2013-01-26 00:55:00,62.1,62.1,30.13,ESE,107,0.0,0.0,100,0.00,,,0.00,Wunderground v.1.15,2013-01-26 05:55:00,
2013-01-26 00:59:00,62.0,62.0,30.13,ESE,107,0.0,0.0,100,0.00,,,0.00,Wunderground v.1.15,2013-01-26 05:59:00,
2013-01-26 01:00:00,62.0,62.0,30.13,ESE,107,0.0,0.0,100,0.00,,,0.00,Wunderground v.1.15,2013-01-26 06:00:00,
2013-01-26 01:02:00,62.0,62.0,30.12,ESE,107,0.0,0.0,100,0.00,,,0.00,Wunderground v.1.15,2013-01-26 06:02:00,
2013-01-26 01:04:00,62.0,62.0,30.12,ESE,107,0.0,0.0,100,0.00,,,0.00,Wunderground v.1.15,2013-01-26 06:04:00,
2013-01-26 01:09:00,62.0,62.0,30.12,ESE,107,0.0,0.0,100,0.00,,,0.00,Wunderground v.1.15,2013-01-26 06:09:00,
2013-01-26 01:10:00,62.0,62.0,30.12,ESE,107,0.0,0.0,100,0.00,,,0.00,Wunderground v.1.15,2013-01-26 06:10:00,
2013-01-26 01:13:00,61.5,61.5,30.12,ESE,107,0.0,0.0,100,0.00,,,0.00,Wunderground v.1.15,2013-01-26 06:13:00,
2013-01-26 01:15:00,61.5,61.5,30.12,ESE,107,0.0,0.0,100,0.00,,,0.00,Wunderground v.1.15,2013-01-26 06:15:00,
2013-01-26 01:17:00,61.5,61.5,30.13,ESE,107,0.0,0.0,100,0.00,,,0.00,Wunderground v.1.15,2013-01-26 06:17:00,
2013-01-26 01:21:00,61.3,61.3,30.13,ESE,107,0.0,0.0,100,0.00,,,0.00,Wunderground v.1.15,2013-01-26 06:21:00,
2013-01-26 01:22:00,61.3,61.3,30.13,ESE,107,0.0,0.0,100,0.00,,,0.00,Wunderground v.1.15,2013-01-26 06:22:00,
2013-01-26 01:23:00,61.5,61.5,30.13,ESE,107,0.0,0.0,100,0.00,,,0.00,Wunderground v.1.15,2013-01-26 06:23:00,
2013-01-26 01:24:00,61.5,61.5,30.13,ESE,107,0.0,0.0,100,0.00,,,0.00,Wunderground v.1.15,2013-01-26 06:24:00,
2013-01-26 01:29:00,61.5,61.5,30.13,ESE,107,0.0,0.0,100,0.00,,,0.00,Wunderground v.1.15,2013-01-26 06:29:00,
2013-01-26 01:30:00,61.5,61.5,30.13,ESE,107,0.0,0.0,100,0.00,,,0.00,Wunderground v.1.15,2013-01-26 06:30:00,
2013-01-26 01:31:00,61.5,61.5,30.12,ESE,107,0.0,0.0,100,0.00,,,0.00,Wunderground v.1.15,2013-01-26 06:31:00,
2013-01-26 01:32:00,61.5,61.5,30.12,ESE,107,0.0,0.0,100,0.00,,,0.00,Wunderground v.1.15,2013-01-26 06:32:00,
2013-01-26 01:36:00,61.5,61.5,30.12,ESE,107,0.0,0.0,100,0.00,,,0.00,Wunderground v.1.15,2013-01-26 06:36:00,
2013-01-26 01:39:00,61.5,61.5,30.12,ESE,107,0.0,0.0,100,0.00,,,0.00,Wunderground v.1.15,2013-01-26 06:39:00,
2013-01-26 01:40:00,61.3,61.3,30.12,ESE,107,0.0,0.0,100,0.00,,,0.00,Wunderground v.1.15,2013-01-26 06:40:00,
2013-01-26 01:43:00,61.3,61.3,30.12,ESE,107,0.0,0.0,100,0.00,,,0.00,Wunderground v.1.15,2013-01-26 06:43:00,
2013-01-26 01:45:00,61.2,61.2,30.12,ESE,107,0.0,0.0,100,0.00,,,0.00,Wunderground v.1.15,2013-01-26 06:45:00,
2013-01-26 01:46:00,61.2,61.2,30.12,ESE,107,0.0,0.0,100,0.00,,,0.00,Wunderground v.1.15,2013-01-26 06:46:00,
2013-01-26 01:48:00,61.2,61.2,30.12,ESE,107,0.0,0.0,100,0.00,,,0.00,Wunderground v.1.15,2013-01-26 06:48:00,
2013-01-26 01:49:00,61.2,61.2,30.12,ESE,107,0.0,0.0,100,0.00,,,0.00,Wunderground v.1.15,2013-01-26 06:49:00,
2013-01-26 01:51:00,61.0,61.0,30.12,ESE,107,0.0,0.0,100,0.00,,,0.00,Wunderground v.1.15,2013-01-26 06:51:00,
2013-01-26 01:55:00,61.0,61.0,30.12,ESE,107,0.0,0.0,100,0.00,,,0.00,Wunderground v.1.15,2013-01-26 06:55:00,
2013-01-26 01:56:00,61.0,61.0,30.12,ESE,107,0.0,0.0,100,0.00,,,0.00,Wunderground v.1.15,2013-01-26 06:56:00,
2013-01-26 01:57:00,61.0,61.0,30.12,ESE,107,0.0,0.0,100,0.00,,,0.00,Wunderground v.1.15,2013-01-26 06:57:00,
2013-01-26 01:59:00,61.0,61.0,30.12,ESE,107,0.0,0.0,100,0.00,,,0.00,Wunderground v.1.15,2013-01-26 06:59:00,
2013-01-26 02:02:00,61.0,61.0,30.12,ESE,107,0.0,0.0,100,0.00,,,0.00,Wunderground v.1.15,2013-01-26 07:02:00,
2013-01-26 02:04:00,61.0,61.0,30.12,ESE,107,0.0,0.0,100,0.00,,,0.00,Wunderground v.1.15,2013-01-26 07:04:00,
2013-01-26 02:06:00,61.2,61.2,30.12,ESE,107,0.0,0.0,100,0.00,,,0.00,Wunderground v.1.15,2013-01-26 07:06:00,
2013-01-26 02:09:00,61.3,61.3,30.12,ESE,107,0.0,0.0,100,0.00,,,0.00,Wunderground v.1.15,2013-01-26 07:09:00,
2013-01-26 02:11:00,61.3,61.3,30.12,ESE,107,0.0,0.0,100,0.00,,,0.00,Wunderground v.1.15,2013-01-26 07:11:00,
2013-01-26 02:12:00,61.3,61.3,30.12,ESE,107,0.0,0.0,100,0.00,,,0.00,Wunderground v.1.15,2013-01-26 07:12:00,
2013-01-26 02:15:00,61.3,61.3,30.12,North,356,0.0,0.0,100,0.00,,,0.00,Wunderground v.1.15,2013-01-26 07:15:00,
2013-01-26 02:18:00,61.3,61.3,30.11,ESE,107,0.0,0.0,100,0.00,,,0.00,Wunderground v.1.15,2013-01-26 07:18:00,
2013-01-26 02:20:00,61.3,61.3,30.11,ESE,107,0.0,0.0,100,0.00,,,0.00,Wunderground v.1.15,2013-01-26 07:20:00,
2013-01-26 02:23:00,61.3,61.3,30.11,ESE,107,0.0,0.0,100,0.00,,,0.00,Wunderground v.1.15,2013-01-26 07:23:00,
2013-01-26 02:24:00,61.3,61.3,30.11,ESE,107,0.0,0.0,100,0.00,,,0.00,Wunderground v.1.15,2013-01-26 07:24:00,
2013-01-26 02:26:00,61.3,61.3,30.11,ESE,107,0.0,0.0,100,0.00,,,0.00,Wunderground v.1.15,2013-01-26 07:26:00,
2013-01-26 02:27:00,61.3,61.3,30.11,ESE,107,0.0,0.0,100,0.00,,,0.00,Wunderground v.1.15,2013-01-26 07:27:00,
2013-01-26 02:29:00,61.3,61.3,30.11,ESE,107,0.0,0.0,100,0.00,,,0.00,Wunderground v.1.15,2013-01-26 07:29:00,
2013-01-26 02:33:00,61.2,61.2,30.11,ESE,107,0.0,0.0,100,0.00,,,0.00,Wunderground v.1.15,2013-01-26 07:33:00,
2013-01-26 02:35:00,61.0,61.0,30.11,ESE,107,0.0,0.0,100,0.00,,,0.00,Wunderground v.1.15,2013-01-26 07:35:00,
2013-01-26 02:36:00,61.0,61.0,30.11,ESE,107,0.0,0.0,100,0.00,,,0.00,Wunderground v.1.15,2013-01-26 07:36:00,
2013-01-26 02:38:00,61.0,61.0,30.11,ESE,107,0.0,0.0,100,0.00,,,0.00,Wunderground v.1.15,2013-01-26 07:38:00,
2013-01-26 02:41:00,61.0,61.0,30.11,ESE,107,0.0,0.0,100,0.00,,,0.00,Wunderground v.1.15,2013-01-26 07:41:00,
2013-01-26 02:42:00,60.9,60.9,30.11,ESE,107,0.0,0.0,100,0.00,,,0.00,Wunderground v.1.15,2013-01-26 07:42:00,
2013-01-26 02:47:00,60.9,60.9,30.11,ESE,107,0.0,0.0,100,0.00,,,0.00,Wunderground v.1.15,2013-01-26 07:47:00,
2013-01-26 02:48:00,60.9,60.9,30.11,ESE,107,0.0,0.0,100,0.00,,,0.00,Wunderground v.1.15,2013-01-26 07:48:00,
2013-01-26 02:50:00,60.9,60.9,30.11,ESE,107,0.0,0.0,100,0.00,,,0.00,Wunderground v.1.15,2013-01-26 07:50:00,
2013-01-26 02:51:00,60.9,60.9,30.11,ESE,107,0.0,0.0,100,0.00,,,0.00,Wunderground v.1.15,2013-01-26 07:51:00,
2013-01-26 02:54:00,60.9,60.9,30.11,ESE,107,0.0,0.0,100,0.00,,,0.00,Wunderground v.1.15,2013-01-26 07:54:00,
2013-01-26 02:56:00,60.9,60.9,30.11,ESE,107,0.0,0.0,100,0.00,,,0.00,Wunderground v.1.15,2013-01-26 07:56:00,
2013-01-26 03:00:00,60.5,60.5,30.11,ESE,107,0.0,0.0,100,0.00,,,0.00,Wunderground v.1.15,2013-01-26 08:00:00,
2013-01-26 03:01:00,60.5,60.5,30.11,ESE,107,0.0,0.0,100,0.00,,,0.00,Wunderground v.1.15,2013-01-26 08:01:00,
2013-01-26 03:02:00,60.5,60.5,30.11,ESE,107,0.0,0.0,100,0.00,,,0.00,Wunderground v.1.15,2013-01-26 08:02:00,
2013-01-26 03:04:00,60.4,60.4,30.11,ESE,107,0.0,0.0,100,0.00,,,0.00,Wunderground v.1.15,2013-01-26 08:04:00,
2013-01-26 03:07:00,60.4,60.4,30.11,ESE,107,0.0,0.0,100,0.00,,,0.00,Wunderground v.1.15,2013-01-26 08:07:00,
2013-01-26 03:09:00,60.4,60.4,30.11,ESE,107,0.0,0.0,100,0.00,,,0.00,Wunderground v.1.15,2013-01-26 08:09:00,
2013-01-26 03:10:00,60.4,60.4,30.11,ESE,107,0.0,0.0,100,0.00,,,0.00,Wunderground v.1.15,2013-01-26 08:10:00,
2013-01-26 03:16:00,60.1,60.1,30.11,ESE,107,0.0,0.0,100,0.00,,,0.00,Wunderground v.1.15,2013-01-26 08:16:00,
2013-01-26 03:17:00,60.1,60.1,30.11,ESE,107,0.0,0.0,100,0.00,,,0.00,Wunderground v.1.15,2013-01-26 08:17:00,
2013-01-26 03:20:00,60.1,60.1,30.11,ESE,107,0.0,0.0,100,0.00,,,0.00,Wunderground v.1.15,2013-01-26 08:20:00,
2013-01-26 03:21:00,60.1,60.1,30.11,ESE,107,0.0,0.0,100,0.00,,,0.00,Wunderground v.1.15,2013-01-26 08:21:00,
2013-01-26 03:23:00,60.1,60.1,30.11,ESE,107,0.0,0.0,100,0.00,,,0.00,Wunderground v.1.15,2013-01-26 08:23:00,
2013-01-26 03:26:00,60.1,60.1,30.11,ESE,107,0.0,0.0,100,0.00,,,0.00,Wunderground v.1.15,2013-01-26 08:26:00,
2013-01-26 03:27:00,60.1,60.1,30.11,ESE,107,0.0,0.0,100,0.00,,,0.00,Wunderground v.1.15,2013-01-26 08:27:00,
2013-01-26 03:29:00,60.1,60.1,30.11,ESE,107,0.0,0.0,100,0.00,,,0.00,Wunderground v.1.15,2013-01-26 08:29:00,
2013-01-26 03:32:00,59.6,59.6,30.11,ESE,107,0.0,0.0,100,0.00,,,0.00,Wunderground v.1.15,2013-01-26 08:32:00,
2013-01-26 03:33:00,59.6,59.6,30.11,ESE,107,0.0,0.0,100,0.00,,,0.00,Wunderground v.1.15,2013-01-26 08:33:00,
2013-01-26 03:35:00,59.8,59.8,30.11,ESE,107,0.0,0.0,100,0.00,,,0.00,Wunderground v.1.15,2013-01-26 08:35:00,
2013-01-26 03:37:00,59.9,59.9,30.11,ESE,107,0.0,0.0,100,0.00,,,0.00,Wunderground v.1.15,2013-01-26 08:37:00,
2013-01-26 03:38:00,59.9,59.9,30.11,ESE,107,0.0,0.0,100,0.00,,,0.00,Wunderground v.1.15,2013-01-26 08:38:00,
2013-01-26 03:40:00,59.9,59.9,30.11,ESE,107,0.0,0.0,100,0.00,,,0.00,Wunderground v.1.15,2013-01-26 08:40:00,
2013-01-26 03:44:00,59.9,59.9,30.11,ESE,107,0.0,0.0,100,0.00,,,0.00,Wunderground v.1.15,2013-01-26 08:44:00,
2013-01-26 03:45:00,59.9,59.9,30.11,ESE,107,0.0,0.0,100,0.00,,,0.00,Wunderground v.1.15,2013-01-26 08:45:00,
2013-01-26 03:46:00,59.9,59.9,30.11,ESE,107,0.0,0.0,100,0.00,,,0.00,Wunderground v.1.15,2013-01-26 08:46:00,
2013-01-26 03:47:00,59.9,59.9,30.11,ESE,107,0.0,0.0,100,0.00,,,0.00,Wunderground v.1.15,2013-01-26 08:47:00,
2013-01-26 03:50:00,59.9,59.9,30.11,ESE,107,0.0,0.0,100,0.00,,,0.00,Wunderground v.1.15,2013-01-26 08:50:00,
2013-01-26 03:53:00,59.9,59.9,30.11,ESE,107,0.0,0.0,100,0.00,,,0.00,Wunderground v.1.15,2013-01-26 08:53:00,
2013-01-26 03:54:00,59.9,59.9,30.11,ESE,107,0.0,0.0,100,0.00,,,0.00,Wunderground v.1.15,2013-01-26 08:54:00,
2013-01-26 03:57:00,59.8,59.8,30.11,ESE,107,0.0,0.0,100,0.00,,,0.00,Wunderground v.1.15,2013-01-26 08:57:00,
2013-01-26 04:00:00,59.8,59.8,30.11,ESE,107,0.0,0.0,100,0.00,,,0.00,Wunderground v.1.15,2013-01-26 09:00:00,
2013-01-26 04:01:00,59.8,59.8,30.11,ESE,107,0.0,0.0,100,0.00,,,0.00,Wunderground v.1.15,2013-01-26 09:01:00,
2013-01-26 04:06:00,59.8,59.8,30.11,ESE,107,0.0,2.0,100,0.00,,,0.00,Wunderground v.1.15,2013-01-26 09:06:00,
2013-01-26 04:07:00,59.8,59.8,30.11,ESE,107,0.0,2.0,100,0.00,,,0.00,Wunderground v.1.15,2013-01-26 09:07:00,
2013-01-26 04:11:00,60.9,60.9,30.11,ESE,106,1.0,2.0,100,0.00,,,0.00,Wunderground v.1.15,2013-01-26 09:11:00,
2013-01-26 04:12:00,60.9,60.9,30.11,ESE,106,1.0,2.0,100,0.00,,,0.00,Wunderground v.1.15,2013-01-26 09:12:00,
2013-01-26 04:13:00,60.9,60.9,30.11,ESE,106,2.0,2.0,100,0.00,,,0.00,Wunderground v.1.15,2013-01-26 09:13:00,
2013-01-26 04:16:00,60.9,60.9,30.11,North,356,3.0,5.0,100,0.00,,,0.00,Wunderground v.1.15,2013-01-26 09:16:00,
2013-01-26 04:18:00,60.9,60.9,30.11,NNW,347,3.0,5.0,100,0.00,,,0.00,Wunderground v.1.15,2013-01-26 09:18:00,
2013-01-26 04:21:00,60.9,60.9,30.11,NNW,344,4.0,4.0,100,0.00,,,0.00,Wunderground v.1.15,2013-01-26 09:21:00,
2013-01-26 04:24:00,60.9,60.9,30.11,NNW,344,4.0,4.0,100,0.00,,,0.00,Wunderground v.1.15,2013-01-26 09:24:00,
2013-01-26 04:25:00,60.9,60.9,30.11,NNW,344,3.0,4.0,100,0.00,,,0.00,Wunderground v.1.15,2013-01-26 09:25:00,
2013-01-26 04:27:00,61.2,61.2,30.11,NNW,344,3.0,4.0,100,0.00,,,0.00,Wunderground v.1.15,2013-01-26 09:27:00,
2013-01-26 04:31:00,61.2,61.2,30.11,NNW,344,3.0,3.0,100,0.00,,,0.00,Wunderground v.1.15,2013-01-26 09:31:00,
2013-01-26 04:32:00,61.2,61.2,30.11,NNW,344,3.0,3.0,100,0.00,,,0.00,Wunderground v.1.15,2013-01-26 09:32:00,
2013-01-26 04:33:00,61.2,61.2,30.11,NNW,344,3.0,3.0,100,0.00,,,0.00,Wunderground v.1.15,2013-01-26 09:33:00,
2013-01-26 04:35:00,61.2,61.2,30.11,NNW,344,3.0,3.0,100,0.00,,,0.00,Wunderground v.1.15,2013-01-26 09:35:00,
2013-01-26 04:37:00,61.2,61.2,30.11,NNW,344,3.0,3.0,100,0.00,,,0.00,Wunderground v.1.15,2013-01-26 09:37:00,
2013-01-26 04:38:00,61.2,61.2,30.11,NNW,344,2.0,3.0,100,0.00,,,0.00,Wunderground v.1.15,2013-01-26 09:38:00,
2013-01-26 04:44:00,61.2,61.2,30.11,NNW,344,1.0,2.0,100,0.00,,,0.00,Wunderground v.1.15,2013-01-26 09:44:00,
2013-01-26 04:46:00,61.0,61.0,30.11,NNW,344,1.0,2.0,100,0.00,,,0.00,Wunderground v.1.15,2013-01-26 09:46:00,
2013-01-26 04:49:00,61.0,61.0,30.11,NNW,344,0.0,2.0,100,0.00,,,0.00,Wunderground v.1.15,2013-01-26 09:49:00,
2013-01-26 04:50:00,61.0,61.0,30.11,NNW,344,0.0,0.0,100,0.00,,,0.00,Wunderground v.1.15,2013-01-26 09:50:00,
2013-01-26 04:51:00,61.0,61.0,30.11,NNW,344,0.0,0.0,100,0.00,,,0.00,Wunderground v.1.15,2013-01-26 09:51:00,
2013-01-26 04:55:00,61.0,61.0,30.11,NNW,344,0.0,0.0,100,0.00,,,0.00,Wunderground v.1.15,2013-01-26 09:55:00,
2013-01-26 04:56:00,60.9,60.9,30.11,NNW,344,0.0,0.0,100,0.00,,,0.00,Wunderground v.1.15,2013-01-26 09:56:00,
2013-01-26 04:58:00,60.9,60.9,30.11,NNW,344,0.0,0.0,100,0.00,,,0.00,Wunderground v.1.15,2013-01-26 09:58:00,
2013-01-26 05:01:00,60.9,60.9,30.11,NNW,344,0.0,0.0,100,0.00,,,0.00,Wunderground v.1.15,2013-01-26 10:01:00,
2013-01-26 05:02:00,60.9,60.9,30.11,NNW,344,0.0,0.0,100,0.00,,,0.00,Wunderground v.1.15,2013-01-26 10:02:00,
2013-01-26 05:04:00,60.7,60.7,30.11,NNW,344,0.0,0.0,100,0.00,,,0.00,Wunderground v.1.15,2013-01-26 10:04:00,
2013-01-26 05:06:00,60.7,60.7,30.11,NNW,344,0.0,0.0,100,0.00,,,0.00,Wunderground v.1.15,2013-01-26 10:06:00,
2013-01-26 05:08:00,60.7,60.7,30.11,NNW,344,0.0,0.0,100,0.00,,,0.00,Wunderground v.1.15,2013-01-26 10:08:00,
2013-01-26 05:09:00,60.7,60.7,30.11,NNW,344,0.0,0.0,100,0.00,,,0.00,Wunderground v.1.15,2013-01-26 10:09:00,
2013-01-26 05:12:00,60.7,60.7,30.11,NNW,344,0.0,0.0,100,0.00,,,0.00,Wunderground v.1.15,2013-01-26 10:12:00,
2013-01-26 05:15:00,60.7,60.7,30.11,NNW,344,0.0,0.0,100,0.00,,,0.00,Wunderground v.1.15,2013-01-26 10:15:00,
2013-01-26 05:17:00,60.7,60.7,30.11,NNW,344,0.0,0.0,100,0.00,,,0.00,Wunderground v.1.15,2013-01-26 10:17:00,
2013-01-26 05:18:00,60.7,60.7,30.11,NNW,344,0.0,0.0,100,0.00,,,0.00,Wunderground v.1.15,2013-01-26 10:18:00,
2013-01-26 05:19:00,60.7,60.7,30.11,NNW,344,0.0,0.0,100,0.00,,,0.00,Wunderground v.1.15,2013-01-26 10:19:00,
2013-01-26 05:22:00,60.7,60.7,30.11,NNW,344,0.0,0.0,100,0.00,,,0.00,Wunderground v.1.15,2013-01-26 10:22:00,
2013-01-26 05:24:00,60.7,60.7,30.11,NNW,344,0.0,0.0,100,0.00,,,0.00,Wunderground v.1.15,2013-01-26 10:24:00,
2013-01-26 05:25:00,60.7,60.7,30.11,NNW,344,0.0,0.0,100,0.00,,,0.00,Wunderground v.1.15,2013-01-26 10:25:00,
2013-01-26 05:26:00,60.7,60.7,30.11,NNW,344,0.0,2.0,100,0.00,,,0.00,Wunderground v.1.15,2013-01-26 10:26:00,
2013-01-26 05:29:00,60.7,60.7,30.11,NNW,344,1.0,3.0,100,0.00,,,0.00,Wunderground v.1.15,2013-01-26 10:29:00,
2013-01-26 05:30:00,60.7,60.7,30.11,NNW,344,3.0,3.0,100,0.00,,,0.00,Wunderground v.1.15,2013-01-26 10:30:00,
2013-01-26 05:34:00,60.7,60.7,30.11,NNW,344,3.0,3.0,100,0.00,,,0.00,Wunderground v.1.15,2013-01-26 10:34:00,
2013-01-26 05:35:00,60.7,60.7,30.11,NNW,344,3.0,3.0,100,0.00,,,0.00,Wunderground v.1.15,2013-01-26 10:35:00,
2013-01-26 05:37:00,60.7,60.7,30.11,NNW,344,1.0,3.0,100,0.00,,,0.00,Wunderground v.1.15,2013-01-26 10:37:00,
2013-01-26 05:38:00,60.7,60.7,30.11,NNW,344,3.0,3.0,100,0.00,,,0.00,Wunderground v.1.15,2013-01-26 10:38:00,
2013-01-26 05:42:00,60.9,60.9,30.11,NNW,344,2.0,2.0,100,0.00,,,0.00,Wunderground v.1.15,2013-01-26 10:42:00,
2013-01-26 05:43:00,60.9,60.9,30.11,NNW,344,2.0,2.0,100,0.00,,,0.00,Wunderground v.1.15,2013-01-26 10:43:00,
2013-01-26 05:46:00,60.9,60.9,30.12,NNW,344,2.0,2.0,100,0.00,,,0.00,Wunderground v.1.15,2013-01-26 10:46:00,
2013-01-26 05:49:00,60.9,60.9,30.12,NNW,344,1.0,2.0,100,0.00,,,0.00,Wunderground v.1.15,2013-01-26 10:49:00,
2013-01-26 05:51:00,60.9,60.9,30.12,NNW,344,1.0,1.0,100,0.00,,,0.00,Wunderground v.1.15,2013-01-26 10:51:00,
2013-01-26 05:54:00,60.9,60.9,30.12,NNW,344,2.0,2.0,100,0.00,,,0.00,Wunderground v.1.15,2013-01-26 10:54:00,
2013-01-26 05:55:00,60.9,60.9,30.12,NNW,344,2.0,2.0,100,0.00,,,0.00,Wunderground v.1.15,2013-01-26 10:55:00,
2013-01-26 05:58:00,60.9,60.9,30.12,NNW,344,1.0,2.0,100,0.00,,,0.00,Wunderground v.1.15,2013-01-26 10:58:00,
2013-01-26 05:59:00,60.9,60.9,30.12,NNW,344,1.0,2.0,100,0.00,,,0.00,Wunderground v.1.15,2013-01-26 10:59:00,
2013-01-26 06:03:00,60.9,60.9,30.12,NNW,344,1.0,3.0,100,0.00,,,0.00,Wunderground v.1.15,2013-01-26 11:03:00,
2013-01-26 06:05:00,60.9,60.9,30.12,NNW,344,1.0,3.0,100,0.00,,,0.00,Wunderground v.1.15,2013-01-26 11:05:00,
2013-01-26 06:08:00,60.9,60.9,30.12,NNW,344,0.0,3.0,100,0.00,,,0.00,Wunderground v.1.15,2013-01-26 11:08:00,
2013-01-26 06:09:00,60.9,60.9,30.12,NNW,344,0.0,3.0,100,0.00,,,0.00,Wunderground v.1.15,2013-01-26 11:09:00,
2013-01-26 06:10:00,60.9,60.9,30.12,NNW,344,1.0,1.0,100,0.00,,,0.00,Wunderground v.1.15,2013-01-26 11:10:00,
2013-01-26 06:14:00,60.9,60.9,30.12,NNW,344,0.0,1.0,100,0.00,,,0.00,Wunderground v.1.15,2013-01-26 11:14:00,
2013-01-26 06:15:00,60.9,60.9,30.12,NNW,344,1.0,1.0,100,0.00,,,0.00,Wunderground v.1.15,2013-01-26 11:15:00,
2013-01-26 06:16:00,60.9,60.9,30.12,NNW,344,0.0,1.0,100,0.00,,,0.00,Wunderground v.1.15,2013-01-26 11:16:00,
2013-01-26 06:18:00,60.9,60.9,30.12,NNW,344,0.0,1.0,100,0.00,,,0.00,Wunderground v.1.15,2013-01-26 11:18:00,
2013-01-26 06:20:00,60.9,60.9,30.12,NNW,344,0.0,0.0,100,0.00,,,0.00,Wunderground v.1.15,2013-01-26 11:20:00,
2013-01-26 06:22:00,60.9,60.9,30.12,NNW,344,0.0,0.0,100,0.00,,,0.00,Wunderground v.1.15,2013-01-26 11:22:00,
2013-01-26 06:23:00,60.9,60.9,30.12,NNW,344,0.0,0.0,100,0.00,,,0.00,Wunderground v.1.15,2013-01-26 11:23:00,
2013-01-26 06:24:00,60.9,60.9,30.12,NNW,344,0.0,0.0,100,0.00,,,0.00,Wunderground v.1.15,2013-01-26 11:24:00,
2013-01-26 06:28:00,60.9,60.9,30.12,NNW,344,0.0,1.0,100,0.00,,,0.00,Wunderground v.1.15,2013-01-26 11:28:00,
2013-01-26 06:30:00,60.9,60.9,30.12,NNW,344,0.0,0.0,100,0.00,,,0.00,Wunderground v.1.15,2013-01-26 11:30:00,
2013-01-26 06:31:00,60.9,60.9,30.13,NNW,344,0.0,0.0,100,0.00,,,0.00,Wunderground v.1.15,2013-01-26 11:31:00,
2013-01-26 06:32:00,60.9,60.9,30.13,NNW,344,0.0,0.0,100,0.00,,,0.00,Wunderground v.1.15,2013-01-26 11:32:00,
2013-01-26 06:34:00,60.9,60.9,30.13,NNW,344,0.0,0.0,100,0.00,,,0.00,Wunderground v.1.15,2013-01-26 11:34:00,
2013-01-26 06:37:00,60.9,60.9,30.13,NNW,344,0.0,0.0,100,0.00,,,0.00,Wunderground v.1.15,2013-01-26 11:37:00,
2013-01-26 06:39:00,60.9,60.9,30.13,NNW,344,0.0,0.0,100,0.00,,,0.00,Wunderground v.1.15,2013-01-26 11:39:00,
2013-01-26 06:40:00,60.9,60.9,30.13,NNW,344,2.0,2.0,100,0.00,,,0.00,Wunderground v.1.15,2013-01-26 11:40:00,
2013-01-26 06:42:00,60.9,60.9,30.13,NNW,344,0.0,2.0,100,0.00,,,0.00,Wunderground v.1.15,2013-01-26 11:42:00,
2013-01-26 06:45:00,60.9,60.9,30.13,NNW,344,0.0,2.0,100,0.00,,,0.00,Wunderground v.1.15,2013-01-26 11:45:00,
2013-01-26 06:46:00,60.9,60.9,30.13,NNW,344,1.0,2.0,100,0.00,,,0.00,Wunderground v.1.15,2013-01-26 11:46:00,
2013-01-26 06:49:00,60.9,60.9,30.13,NNW,344,0.0,2.0,100,0.00,,,0.00,Wunderground v.1.15,2013-01-26 11:49:00,
2013-01-26 06:52:00,60.9,60.9,30.13,NNW,344,0.0,1.0,100,0.00,,,0.00,Wunderground v.1.15,2013-01-26 11:52:00,
2013-01-26 06:53:00,60.9,60.9,30.13,NNW,344,0.0,1.0,100,0.00,,,0.00,Wunderground v.1.15,2013-01-26 11:53:00,
2013-01-26 06:57:00,59.8,59.8,30.13,NNW,344,3.0,3.0,100,0.00,,,0.00,Wunderground v.1.15,2013-01-26 11:57:00,
2013-01-26 06:58:00,59.8,59.8,30.13,NNW,344,1.0,3.0,100,0.00,,,0.00,Wunderground v.1.15,2013-01-26 11:58:00,
2013-01-26 07:00:00,59.8,59.8,30.13,NNW,344,1.0,1.0,100,0.00,,,0.00,Wunderground v.1.15,2013-01-26 12:00:00,
2013-01-26 07:01:00,59.8,59.8,30.13,NNW,344,1.0,1.0,100,0.00,,,0.00,Wunderground v.1.15,2013-01-26 12:01:00,
2013-01-26 07:02:00,59.8,59.8,30.13,NNW,344,1.0,1.0,100,0.00,,,0.00,Wunderground v.1.15,2013-01-26 12:02:00,
2013-01-26 07:06:00,59.6,59.6,30.13,NNW,346,3.0,3.0,100,0.00,,,0.00,Wunderground v.1.15,2013-01-26 12:06:00,
2013-01-26 07:07:00,59.6,59.6,30.13,NNW,346,3.0,3.0,100,0.00,,,0.00,Wunderground v.1.15,2013-01-26 12:07:00,
2013-01-26 07:09:00,59.6,59.6,30.13,NNW,346,2.0,3.0,100,0.00,,,0.00,Wunderground v.1.15,2013-01-26 12:09:00,
2013-01-26 07:12:00,59.6,59.6,30.13,NNW,346,0.0,2.0,100,0.00,,,0.00,Wunderground v.1.15,2013-01-26 12:12:00,
2013-01-26 07:13:00,59.6,59.6,30.13,NNW,346,0.0,2.0,100,0.00,,,0.00,Wunderground v.1.15,2013-01-26 12:13:00,
2013-01-26 07:16:00,59.5,59.5,30.14,NNW,346,0.0,2.0,100,0.00,,,0.00,Wunderground v.1.15,2013-01-26 12:16:00,
2013-01-26 07:17:00,59.5,59.5,30.14,NNW,346,0.0,2.0,100,0.00,,,0.00,Wunderground v.1.15,2013-01-26 12:17:00,
2013-01-26 07:19:00,59.5,59.5,30.14,NNW,346,0.0,2.0,100,0.00,,,0.00,Wunderground v.1.15,2013-01-26 12:19:00,
2013-01-26 07:21:00,59.5,59.5,30.14,NNW,346,0.0,0.0,100,0.00,,,0.00,Wunderground v.1.15,2013-01-26 12:21:00,
2013-01-26 07:22:00,59.5,59.5,30.14,NNW,346,0.0,0.0,100,0.00,,,0.00,Wunderground v.1.15,2013-01-26 12:22:00,
2013-01-26 07:23:00,59.5,59.5,30.14,NNW,346,0.0,0.0,100,0.00,,,0.00,Wunderground v.1.15,2013-01-26 12:23:00,
2013-01-26 07:28:00,59.5,59.5,30.14,NNW,346,0.0,1.0,100,0.00,,,0.00,Wunderground v.1.15,2013-01-26 12:28:00,
2013-01-26 07:29:00,59.5,59.5,30.14,NNW,346,0.0,1.0,100,0.00,,,0.00,Wunderground v.1.15,2013-01-26 12:29:00,
2013-01-26 07:30:00,59.5,59.5,30.14,NNW,346,0.0,0.0,100,0.00,,,0.00,Wunderground v.1.15,2013-01-26 12:30:00,
2013-01-26 07:31:00,59.5,59.5,30.14,NNW,346,0.0,0.0,100,0.00,,,0.00,Wunderground v.1.15,2013-01-26 12:31:00,
2013-01-26 07:34:00,59.5,59.5,30.14,NNW,346,0.0,0.0,100,0.00,,,0.00,Wunderground v.1.15,2013-01-26 12:34:00,
2013-01-26 07:36:00,59.5,59.5,30.14,NNW,346,0.0,0.0,100,0.00,,,0.00,Wunderground v.1.15,2013-01-26 12:36:00,
2013-01-26 07:37:00,59.5,59.5,30.14,NNW,346,0.0,0.0,100,0.00,,,0.00,Wunderground v.1.15,2013-01-26 12:37:00,
2013-01-26 07:40:00,59.5,59.5,30.14,NNW,346,0.0,0.0,100,0.00,,,0.00,Wunderground v.1.15,2013-01-26 12:40:00,
2013-01-26 07:41:00,59.5,59.5,30.14,NNW,346,0.0,0.0,100,0.00,,,0.00,Wunderground v.1.15,2013-01-26 12:41:00,
2013-01-26 07:42:00,59.5,59.5,30.14,NNW,346,0.0,0.0,100,0.00,,,0.00,Wunderground v.1.15,2013-01-26 12:42:00,
2013-01-26 07:45:00,59.5,59.5,30.14,NNW,346,2.0,3.0,100,0.00,,,0.00,Wunderground v.1.15,2013-01-26 12:45:00,
2013-01-26 07:46:00,59.5,59.5,30.15,NNW,346,2.0,3.0,100,0.00,,,0.00,Wunderground v.1.15,2013-01-26 12:46:00,
2013-01-26 07:50:00,59.5,59.5,30.15,NNW,346,1.0,1.0,100,0.00,,,0.00,Wunderground v.1.15,2013-01-26 12:50:00,
2013-01-26 07:52:00,59.5,59.5,30.15,NNW,346,1.0,1.0,100,0.00,,,0.00,Wunderground v.1.15,2013-01-26 12:52:00,
2013-01-26 07:54:00,59.5,59.5,30.15,NNW,346,1.0,1.0,100,0.00,,,0.00,Wunderground v.1.15,2013-01-26 12:54:00,
2013-01-26 07:55:00,59.5,59.5,30.15,NNW,346,1.0,1.0,100,0.00,,,0.00,Wunderground v.1.15,2013-01-26 12:55:00,
2013-01-26 07:57:00,59.5,59.5,30.15,NNW,346,0.0,1.0,100,0.00,,,0.00,Wunderground v.1.15,2013-01-26 12:57:00,
2013-01-26 07:58:00,59.5,59.5,30.15,NNW,346,0.0,1.0,100,0.00,,,0.00,Wunderground v.1.15,2013-01-26 12:58:00,
2013-01-26 08:00:00,59.5,59.5,30.15,NNW,346,0.0,0.0,100,0.00,,,0.00,Wunderground v.1.15,2013-01-26 13:00:00,
2013-01-26 08:01:00,59.5,59.5,30.15,NNW,346,0.0,0.0,100,0.00,,,0.00,Wunderground v.1.15,2013-01-26 13:01:00,
2013-01-26 08:03:00,59.5,59.5,30.15,NNW,346,0.0,0.0,100,0.00,,,0.00,Wunderground v.1.15,2013-01-26 13:03:00,
2013-01-26 08:05:00,59.5,59.5,30.15,NNW,346,0.0,0.0,100,0.00,,,0.00,Wunderground v.1.15,2013-01-26 13:05:00,
2013-01-26 08:08:00,59.9,59.9,30.15,NNW,346,0.0,0.0,100,0.00,,,0.00,Wunderground v.1.15,2013-01-26 13:08:00,
2013-01-26 08:10:00,60.1,60.1,30.15,NNW,346,0.0,0.0,100,0.00,,,0.00,Wunderground v.1.15,2013-01-26 13:10:00,
2013-01-26 08:12:00,60.1,60.1,30.15,NNW,346,0.0,2.0,100,0.00,,,0.00,Wunderground v.1.15,2013-01-26 13:12:00,
2013-01-26 08:13:00,60.1,60.1,30.15,NNW,346,1.0,2.0,100,0.00,,,0.00,Wunderground v.1.15,2013-01-26 13:13:00,
2013-01-26 08:16:00,60.7,60.7,30.16,NNW,346,1.0,3.0,100,0.00,,,0.00,Wunderground v.1.15,2013-01-26 13:16:00,
2013-01-26 08:17:00,60.7,60.7,30.16,NNW,346,1.0,3.0,100,0.00,,,0.00,Wunderground v.1.15,2013-01-26 13:17:00,
2013-01-26 08:20:00,60.7,60.7,30.16,NNW,346,2.0,5.0,100,0.00,,,0.00,Wunderground v.1.15,2013-01-26 13:20:00,
2013-01-26 08:22:00,61.3,61.3,30.16,North,349,2.0,5.0,100,0.00,,,0.00,Wunderground v.1.15,2013-01-26 13:22:00,
2013-01-26 08:23:00,61.3,61.3,30.16,North,349,2.0,5.0,100,0.00,,,0.00,Wunderground v.1.15,2013-01-26 13:23:00,
2013-01-26 08:26:00,61.6,35.1,30.16,NNW,340,3.0,5.0,37,0.00,,,0.00,Wunderground v.1.15,2013-01-26 13:26:00,
2013-01-26 08:28:00,62.0,34.0,30.16,NNW,340,4.0,5.0,35,0.00,,,0.00,Wunderground v.1.15,2013-01-26 13:28:00,
2013-01-26 08:29:00,62.0,33.3,30.16,North,4,4.0,6.0,34,0.00,,,0.00,Wunderground v.1.15,2013-01-26 13:29:00,
2013-01-26 08:31:00,62.0,33.3,30.16,North,0,4.0,4.0,34,0.00,,,0.00,Wunderground v.1.15,2013-01-26 13:31:00,
2013-01-26 08:34:00,62.4,27.0,30.16,North,0,4.0,6.0,26,0.00,,,0.00,Wunderground v.1.15,2013-01-26 13:34:00,
2013-01-26 08:36:00,62.4,25.1,30.16,North,0,4.0,6.0,24,0.00,,,0.00,Wunderground v.1.15,2013-01-26 13:36:00,
2013-01-26 08:37:00,62.4,26.1,30.16,North,0,4.0,6.0,25,0.00,,,0.00,Wunderground v.1.15,2013-01-26 13:37:00,
2013-01-26 08:39:00,62.7,24.3,30.16,North,359,4.0,6.0,23,0.00,,,0.00,Wunderground v.1.15,2013-01-26 13:39:00,
2013-01-26 08:42:00,62.9,24.5,30.16,North,0,3.0,4.0,23,0.00,,,0.00,Wunderground v.1.15,2013-01-26 13:42:00,
2013-01-26 08:43:00,62.9,24.5,30.16,North,0,3.0,4.0,23,0.00,,,0.00,Wunderground v.1.15,2013-01-26 13:43:00,
2013-01-26 08:44:00,63.2,22.6,30.16,NNE,20,3.0,4.0,21,0.00,,,0.00,Wunderground v.1.15,2013-01-26 13:44:00,
2013-01-26 08:47:00,63.4,22.7,30.16,North,10,2.0,4.0,21,0.00,,,0.00,Wunderground v.1.15,2013-01-26 13:47:00,
2013-01-26 08:50:00,63.7,6.0,30.16,North,357,2.0,2.0,10,0.00,,,0.00,Wunderground v.1.15,2013-01-26 13:50:00,
2013-01-26 08:51:00,63.7,6.0,30.16,North,359,2.0,2.0,10,0.00,,,0.00,Wunderground v.1.15,2013-01-26 13:51:00,
2013-01-26 08:52:00,63.9,6.2,30.16,North,357,2.0,3.0,10,0.00,,,0.00,Wunderground v.1.15,2013-01-26 13:52:00,
2013-01-26 08:56:00,64.3,-1.2,30.16,North,359,3.0,4.0,7,0.00,,,0.00,Wunderground v.1.15,2013-01-26 13:56:00,
2013-01-26 08:58:00,64.5,-4.3,30.16,North,359,2.0,4.0,6,0.00,,,0.00,Wunderground v.1.15,2013-01-26 13:58:00,
2013-01-26 09:00:00,64.7,-8.0,30.16,North,7,2.0,2.0,5,0.00,,,0.00,Wunderground v.1.15,2013-01-26 14:00:00,
2013-01-26 09:02:00,64.8,-7.9,30.16,North,0,2.0,3.0,5,0.00,,,0.00,Wunderground v.1.15,2013-01-26 14:02:00,
2013-01-26 09:05:00,65.2,-17.8,30.16,North,0,2.0,6.0,3,0.00,,,0.00,Wunderground v.1.15,2013-01-26 14:05:00,
2013-01-26 09:06:00,65.2,-17.8,30.16,North,359,2.0,6.0,3,0.00,,,0.00,Wunderground v.1.15,2013-01-26 14:06:00,
2013-01-26 09:09:00,65.3,-99.9,30.16,North,359,3.0,6.0,0,0.00,,,0.00,Wunderground v.1.15,2013-01-26 14:09:00,
2013-01-26 09:10:00,65.5,-99.9,30.16,North,0,3.0,3.0,0,0.00,,,0.00,Wunderground v.1.15,2013-01-26 14:10:00,
2013-01-26 09:11:00,65.5,-99.9,30.16,North,10,3.0,3.0,0,0.00,,,0.00,Wunderground v.1.15,2013-01-26 14:11:00,
2013-01-26 09:15:00,66.0,-17.3,30.16,North,8,3.0,3.0,3,0.00,,,0.00,Wunderground v.1.15,2013-01-26 14:15:00,
2013-01-26 09:16:00,66.0,-17.3,30.17,North,0,3.0,4.0,3,0.00,,,0.00,Wunderground v.1.15,2013-01-26 14:16:00,
2013-01-26 09:17:00,66.1,-99.9,30.17,North,4,3.0,6.0,255,0.00,,,0.00,Wunderground v.1.15,2013-01-26 14:17:00,
2013-01-26 09:18:00,66.3,-99.9,30.17,North,8,3.0,6.0,255,0.00,,,0.00,Wunderground v.1.15,2013-01-26 14:18:00,
2013-01-26 09:20:00,66.3,-99.9,30.17,North,0,3.0,3.0,0,0.00,,,0.00,Wunderground v.1.15,2013-01-26 14:20:00,
2013-01-26 09:22:00,66.4,-99.9,30.17,North,3,3.0,3.0,0,0.00,,,0.00,Wunderground v.1.15,2013-01-26 14:22:00,
2013-01-26 09:23:00,66.6,-99.9,30.17,North,3,3.0,3.0,0,0.00,,,0.00,Wunderground v.1.15,2013-01-26 14:23:00,
2013-01-26 09:24:00,66.6,-99.9,30.17,North,3,3.0,3.0,0,0.00,,,0.00,Wunderground v.1.15,2013-01-26 14:24:00,
2013-01-26 09:26:00,66.8,-99.9,30.17,NNE,13,4.0,4.0,0,0.00,,,0.00,Wunderground v.1.15,2013-01-26 14:26:00,
2013-01-26 09:29:00,66.9,-99.9,30.17,North,10,4.0,7.0,0,0.00,,,0.00,Wunderground v.1.15,2013-01-26 14:29:00,
2013-01-26 09:30:00,67.1,-99.9,30.17,NNE,16,4.0,4.0,0,0.00,,,0.00,Wunderground v.1.15,2013-01-26 14:30:00,
2013-01-26 09:31:00,67.1,-99.9,30.17,North,7,4.0,5.0,0,0.00,,,0.00,Wunderground v.1.15,2013-01-26 14:31:00,
2013-01-26 09:34:00,67.3,-99.9,30.17,North,0,5.0,7.0,0,0.00,,,0.00,Wunderground v.1.15,2013-01-26 14:34:00,
2013-01-26 09:35:00,67.4,-99.9,30.17,North,0,5.0,7.0,0,0.00,,,0.00,Wunderground v.1.15,2013-01-26 14:35:00,
2013-01-26 09:36:00,67.4,-99.9,30.17,North,0,5.0,7.0,0,0.00,,,0.00,Wunderground v.1.15,2013-01-26 14:36:00,
2013-01-26 09:39:00,67.8,-99.9,30.17,NNE,13,4.0,7.0,0,0.00,,,0.00,Wunderground v.1.15,2013-01-26 14:39:00,
2013-01-26 09:40:00,67.9,-99.9,30.17,North,10,4.0,4.0,0,0.00,,,0.00,Wunderground v.1.15,2013-01-26 14:40:00,
2013-01-26 09:45:00,68.4,-99.9,30.17,North,0,4.0,7.0,0,0.00,,,0.00,Wunderground v.1.15,2013-01-26 14:45:00,
2013-01-26 09:46:00,68.4,-99.9,30.17,North,0,4.0,7.0,0,0.00,,,0.00,Wunderground v.1.15,2013-01-26 14:46:00,
2013-01-26 09:49:00,68.8,-99.9,30.17,North,0,3.0,7.0,0,0.00,,,0.00,Wunderground v.1.15,2013-01-26 14:49:00,
2013-01-26 09:50:00,69.1,-99.9,30.17,North,11,3.0,3.0,0,0.00,,,0.00,Wunderground v.1.15,2013-01-26 14:50:00,
2013-01-26 09:52:00,69.3,-99.9,30.17,North,11,3.0,3.0,0,0.00,,,0.00,Wunderground v.1.15,2013-01-26 14:52:00,
2013-01-26 09:54:00,69.3,-99.9,30.17,North,11,2.0,3.0,0,0.00,,,0.00,Wunderground v.1.15,2013-01-26 14:54:00,
2013-01-26 09:57:00,69.3,-99.9,30.17,North,11,2.0,6.0,0,0.00,,,0.00,Wunderground v.1.15,2013-01-26 14:57:00,
2013-01-26 09:58:00,69.8,-99.9,30.17,North,0,2.0,6.0,0,0.00,,,0.00,Wunderground v.1.15,2013-01-26 14:58:00,
2013-01-26 10:00:00,69.8,-99.9,30.17,North,0,2.0,5.0,0,0.00,,,0.00,Wunderground v.1.15,2013-01-26 15:00:00,
2013-01-26 10:01:00,69.8,-99.9,30.17,NNW,332,3.0,7.0,0,0.00,,,0.00,Wunderground v.1.15,2013-01-26 15:01:00,
2013-01-26 10:04:00,69.8,-99.9,30.17,North,0,4.0,7.0,0,0.00,,,0.00,Wunderground v.1.15,2013-01-26 15:04:00,
2013-01-26 10:05:00,69.8,-99.9,30.17,North,359,4.0,7.0,0,0.00,,,0.00,Wunderground v.1.15,2013-01-26 15:05:00,
2013-01-26 10:07:00,69.9,-99.9,30.17,North,0,5.0,7.0,0,0.00,,,0.00,Wunderground v.1.15,2013-01-26 15:07:00,
2013-01-26 10:10:00,69.9,-99.9,30.17,North,0,5.0,7.0,0,0.00,,,0.00,Wunderground v.1.15,2013-01-26 15:10:00,
2013-01-26 10:11:00,69.9,-99.9,30.17,North,0,5.0,10.0,0,0.00,,,0.00,Wunderground v.1.15,2013-01-26 15:11:00,
2013-01-26 10:14:00,70.1,-99.9,30.17,North,357,5.0,10.0,0,0.00,,,0.00,Wunderground v.1.15,2013-01-26 15:14:00,
2013-01-26 10:16:00,70.3,-99.9,30.17,North,0,6.0,10.0,0,0.00,,,0.00,Wunderground v.1.15,2013-01-26 15:16:00,
2013-01-26 10:17:00,70.4,-99.9,30.17,North,0,5.0,10.0,0,0.00,,,0.00,Wunderground v.1.15,2013-01-26 15:17:00,
2013-01-26 10:18:00,70.4,-99.9,30.17,North,0,5.0,10.0,0,0.00,,,0.00,Wunderground v.1.15,2013-01-26 15:18:00,
2013-01-26 10:22:00,70.8,-99.9,30.17,North,0,5.0,6.0,0,0.00,,,0.00,Wunderground v.1.15,2013-01-26 15:22:00,
2013-01-26 10:23:00,70.9,-99.9,30.17,North,3,5.0,6.0,0,0.00,,,0.00,Wunderground v.1.15,2013-01-26 15:23:00,
2013-01-26 10:24:00,70.9,-99.9,30.17,North,357,5.0,6.0,0,0.00,,,0.00,Wunderground v.1.15,2013-01-26 15:24:00,
2013-01-26 10:30:00,71.1,-99.9,30.17,North,0,6.0,6.0,0,0.00,,,0.00,Wunderground v.1.15,2013-01-26 15:30:00,
2013-01-26 10:31:00,71.1,-99.9,30.17,North,0,6.0,6.0,0,0.00,,,0.00,Wunderground v.1.15,2013-01-26 15:31:00,
2013-01-26 10:32:00,71.1,-99.9,30.17,NNE,23,5.0,6.0,0,0.00,,,0.00,Wunderground v.1.15,2013-01-26 15:32:00,
2013-01-26 10:34:00,71.5,-99.9,30.17,North,1,5.0,6.0,0,0.00,,,0.00,Wunderground v.1.15,2013-01-26 15:34:00,
2013-01-26 10:36:00,71.6,-99.9,30.17,NNW,336,5.0,6.0,0,0.00,,,0.00,Wunderground v.1.15,2013-01-26 15:36:00,
2013-01-26 10:37:00,71.6,-99.9,30.17,North,353,5.0,6.0,0,0.00,,,0.00,Wunderground v.1.15,2013-01-26 15:37:00,
2013-01-26 10:41:00,71.8,-99.9,30.17,NNE,32,4.0,4.0,0,0.00,,,0.00,Wunderground v.1.15,2013-01-26 15:41:00,
2013-01-26 10:43:00,72.1,-99.9,30.17,North,350,4.0,7.0,0,0.00,,,0.00,Wunderground v.1.15,2013-01-26 15:43:00,
2013-01-26 10:45:00,72.3,-99.9,30.17,North,352,4.0,7.0,0,0.00,,,0.00,Wunderground v.1.15,2013-01-26 15:45:00,
2013-01-26 10:47:00,72.3,-99.9,30.17,North,1,4.0,8.0,0,0.00,,,0.00,Wunderground v.1.15,2013-01-26 15:47:00,
2013-01-26 10:50:00,72.3,-99.9,30.17,North,0,5.0,5.0,0,0.00,,,0.00,Wunderground v.1.15,2013-01-26 15:50:00,
2013-01-26 10:51:00,72.3,-99.9,30.17,North,0,5.0,5.0,0,0.00,,,0.00,Wunderground v.1.15,2013-01-26 15:51:00,
2013-01-26 10:53:00,72.5,-99.9,30.17,North,3,6.0,6.0,0,0.00,,,0.00,Wunderground v.1.15,2013-01-26 15:53:00,
2013-01-26 10:55:00,72.7,-99.9,30.17,North,356,6.0,7.0,0,0.00,,,0.00,Wunderground v.1.15,2013-01-26 15:55:00,
2013-01-26 10:59:00,72.7,-99.9,30.17,NNW,347,6.0,8.0,0,0.00,,,0.00,Wunderground v.1.15,2013-01-26 15:59:00,
2013-01-26 11:00:00,72.8,-99.9,30.17,NNW,342,6.0,6.0,0,0.00,,,0.00,Wunderground v.1.15,2013-01-26 16:00:00,
2013-01-26 11:02:00,72.8,-99.9,30.17,North,0,6.0,6.0,0,0.00,,,0.00,Wunderground v.1.15,2013-01-26 16:02:00,
2013-01-26 11:03:00,73.0,-99.9,30.17,North,0,6.0,6.0,0,0.00,,,0.00,Wunderground v.1.15,2013-01-26 16:03:00,
2013-01-26 11:06:00,73.0,-99.9,30.17,North,0,5.0,7.0,0,0.00,,,0.00,Wunderground v.1.15,2013-01-26 16:06:00,
2013-01-26 11:08:00,73.2,-99.9,30.17,North,0,5.0,8.0,0,0.00,,,0.00,Wunderground v.1.15,2013-01-26 16:08:00,
2013-01-26 11:09:00,73.2,-99.9,30.17,North,356,5.0,8.0,0,0.00,,,0.00,Wunderground v.1.15,2013-01-26 16:09:00,
2013-01-26 11:12:00,73.2,-99.9,30.17,NNE,13,5.0,5.0,0,0.00,,,0.00,Wunderground v.1.15,2013-01-26 16:12:00,
2013-01-26 11:14:00,73.3,-99.9,30.17,North,359,5.0,5.0,0,0.00,,,0.00,Wunderground v.1.15,2013-01-26 16:14:00,
2013-01-26 11:15:00,73.5,-99.9,30.16,NW,319,5.0,5.0,0,0.00,,,0.00,Wunderground v.1.15,2013-01-26 16:15:00,
2013-01-26 11:18:00,73.5,-99.9,30.16,NNW,340,5.0,6.0,0,0.00,,,0.00,Wunderground v.1.15,2013-01-26 16:18:00,
2013-01-26 11:20:00,73.5,-99.9,30.16,North,1,5.0,5.0,0,0.00,,,0.00,Wunderground v.1.15,2013-01-26 16:20:00,
2013-01-26 11:23:00,73.7,-99.9,30.16,NNW,347,5.0,5.0,0,0.00,,,0.00,Wunderground v.1.15,2013-01-26 16:23:00,
2013-01-26 11:25:00,73.7,-99.9,30.16,NNW,346,5.0,5.0,0,0.00,,,0.00,Wunderground v.1.15,2013-01-26 16:25:00,
2013-01-26 11:27:00,73.9,-99.9,30.16,NNW,346,4.0,5.0,0,0.00,,,0.00,Wunderground v.1.15,2013-01-26 16:27:00,
2013-01-26 11:29:00,74.2,-99.9,30.16,NNW,343,3.0,5.0,0,0.00,,,0.00,Wunderground v.1.15,2013-01-26 16:29:00,
2013-01-26 11:32:00,74.2,-99.9,30.16,NNW,343,2.0,3.0,0,0.00,,,0.00,Wunderground v.1.15,2013-01-26 16:32:00,
2013-01-26 11:33:00,74.4,-99.9,30.16,NNW,343,2.0,3.0,0,0.00,,,0.00,Wunderground v.1.15,2013-01-26 16:33:00,
2013-01-26 11:38:00,74.4,-99.9,30.16,North,359,2.0,5.0,0,0.00,,,0.00,Wunderground v.1.15,2013-01-26 16:38:00,
2013-01-26 11:39:00,74.2,-99.9,30.16,North,359,3.0,5.0,0,0.00,,,0.00,Wunderground v.1.15,2013-01-26 16:39:00,
2013-01-26 11:40:00,74.4,-99.9,30.16,North,359,3.0,3.0,0,0.00,,,0.00,Wunderground v.1.15,2013-01-26 16:40:00,
2013-01-26 11:42:00,74.4,-99.9,30.16,North,359,3.0,3.0,0,0.00,,,0.00,Wunderground v.1.15,2013-01-26 16:42:00,
2013-01-26 11:44:00,74.4,-99.9,30.16,North,359,2.0,3.0,0,0.00,,,0.00,Wunderground v.1.15,2013-01-26 16:44:00,
2013-01-26 11:45:00,74.6,-99.9,30.16,North,359,2.0,3.0,0,0.00,,,0.00,Wunderground v.1.15,2013-01-26 16:45:00,
2013-01-26 11:50:00,75.3,-99.9,30.15,North,359,1.0,1.0,0,0.00,,,0.00,Wunderground v.1.15,2013-01-26 16:50:00,
2013-01-26 11:51:00,75.3,-99.9,30.15,NNE,30,0.0,2.0,0,0.00,,,0.00,Wunderground v.1.15,2013-01-26 16:51:00,
2013-01-26 11:52:00,75.4,-99.9,30.15,NE,42,1.0,4.0,0,0.00,,,0.00,Wunderground v.1.15,2013-01-26 16:52:00,
2013-01-26 11:53:00,75.4,-99.9,30.15,NE,42,1.0,4.0,0,0.00,,,0.00,Wunderground v.1.15,2013-01-26 16:53:00,
2013-01-26 11:56:00,76.0,-99.9,30.15,NE,42,1.0,4.0,0,0.00,,,0.00,Wunderground v.1.15,2013-01-26 16:56:00,
2013-01-26 11:57:00,76.1,-99.9,30.15,NNE,32,1.0,4.0,0,0.00,,,0.00,Wunderground v.1.15,2013-01-26 16:57:00,
2013-01-26 11:59:00,76.3,-99.9,30.15,North,11,2.0,6.0,0,0.00,,,0.00,Wunderground v.1.15,2013-01-26 16:59:00,
2013-01-26 12:00:00,76.3,-99.9,30.15,NNW,347,2.0,6.0,0,0.00,,,0.00,Wunderground v.1.15,2013-01-26 17:00:00,
2013-01-26 12:04:00,75.6,-99.9,30.14,North,353,3.0,7.0,0,0.00,,,0.00,Wunderground v.1.15,2013-01-26 17:04:00,
2013-01-26 12:06:00,75.6,-99.9,30.14,North,359,4.0,7.0,0,0.00,,,0.00,Wunderground v.1.15,2013-01-26 17:06:00,
2013-01-26 12:09:00,75.8,-99.9,30.14,North,357,4.0,7.0,0,0.00,,,0.00,Wunderground v.1.15,2013-01-26 17:09:00,
2013-01-26 12:12:00,75.8,-99.9,30.14,North,0,2.0,4.0,0,0.00,,,0.00,Wunderground v.1.15,2013-01-26 17:12:00,
2013-01-26 12:13:00,75.8,-99.9,30.14,North,0,2.0,4.0,0,0.00,,,0.00,Wunderground v.1.15,2013-01-26 17:13:00,
2013-01-26 12:15:00,76.0,-99.9,30.14,North,0,2.0,4.0,0,0.00,,,0.00,Wunderground v.1.15,2013-01-26 17:15:00,
2013-01-26 12:18:00,76.1,-99.9,30.14,North,0,1.0,4.0,0,0.00,,,0.00,Wunderground v.1.15,2013-01-26 17:18:00,
2013-01-26 12:20:00,76.1,-99.9,30.14,North,0,1.0,2.0,0,0.00,,,0.00,Wunderground v.1.15,2013-01-26 17:20:00,
2013-01-26 12:21:00,76.1,-99.9,30.14,North,0,1.0,2.0,0,0.00,,,0.00,Wunderground v.1.15,2013-01-26 17:21:00,
2013-01-26 12:22:00,76.1,-99.9,30.14,North,0,1.0,2.0,0,0.00,,,0.00,Wunderground v.1.15,2013-01-26 17:22:00,
2013-01-26 12:25:00,76.3,-99.9,30.14,North,0,1.0,3.0,0,0.00,,,0.00,Wunderground v.1.15,2013-01-26 17:25:00,
2013-01-26 12:27:00,76.3,-99.9,30.14,North,0,1.0,6.0,0,0.00,,,0.00,Wunderground v.1.15,2013-01-26 17:27:00,
2013-01-26 12:28:00,76.3,-99.9,30.14,North,0,2.0,6.0,0,0.00,,,0.00,Wunderground v.1.15,2013-01-26 17:28:00,
2013-01-26 12:29:00,76.1,-99.9,30.14,NNW,347,2.0,6.0,0,0.00,,,0.00,Wunderground v.1.15,2013-01-26 17:29:00,
2013-01-26 12:32:00,76.0,-99.9,30.13,North,350,3.0,6.0,0,0.00,,,0.00,Wunderground v.1.15,2013-01-26 17:32:00,
2013-01-26 12:33:00,76.0,-99.9,30.13,North,352,3.0,6.0,0,0.00,,,0.00,Wunderground v.1.15,2013-01-26 17:33:00,
2013-01-26 12:35:00,76.1,-99.9,30.13,NNW,340,3.0,6.0,0,0.00,,,0.00,Wunderground v.1.15,2013-01-26 17:35:00,
2013-01-26 12:37:00,76.3,-99.9,30.13,NNW,339,3.0,6.0,0,0.00,,,0.00,Wunderground v.1.15,2013-01-26 17:37:00,
2013-01-26 12:38:00,76.5,-99.9,30.13,West,272,2.0,6.0,0,0.00,,,0.00,Wunderground v.1.15,2013-01-26 17:38:00,
2013-01-26 12:42:00,76.8,-99.9,30.13,NNE,13,2.0,3.0,0,0.00,,,0.00,Wunderground v.1.15,2013-01-26 17:42:00,
2013-01-26 12:44:00,76.8,76.8,30.13,NNE,13,2.0,3.0,100,0.00,,,0.00,Wunderground v.1.15,2013-01-26 17:44:00,
2013-01-26 12:47:00,76.8,76.8,30.12,North,3,2.0,3.0,100,0.00,,,0.00,Wunderground v.1.15,2013-01-26 17:47:00,
2013-01-26 12:49:00,77.0,77.0,30.12,NNW,337,2.0,5.0,100,0.00,,,0.00,Wunderground v.1.15,2013-01-26 17:49:00,
2013-01-26 12:50:00,76.8,76.8,30.12,North,353,2.0,4.0,100,0.00,,,0.00,Wunderground v.1.15,2013-01-26 17:50:00,
2013-01-26 12:51:00,76.8,76.8,30.12,North,356,3.0,4.0,100,0.00,,,0.00,Wunderground v.1.15,2013-01-26 17:51:00,
2013-01-26 12:54:00,76.5,76.5,30.12,North,0,3.0,6.0,100,0.00,,,0.00,Wunderground v.1.15,2013-01-26 17:54:00,
2013-01-26 12:56:00,76.3,76.3,30.12,North,357,3.0,6.0,100,0.00,,,0.00,Wunderground v.1.15,2013-01-26 17:56:00,
2013-01-26 13:00:00,76.3,76.3,30.12,North,357,3.0,3.0,100,0.00,,,0.00,Wunderground v.1.15,2013-01-26 18:00:00,
2013-01-26 13:02:00,76.5,76.5,30.11,North,357,2.0,3.0,100,0.00,,,0.00,Wunderground v.1.15,2013-01-26 18:02:00,
2013-01-26 13:03:00,76.5,76.5,30.11,North,357,1.0,3.0,100,0.00,,,0.00,Wunderground v.1.15,2013-01-26 18:03:00,
2013-01-26 13:06:00,76.7,76.7,30.11,North,357,1.0,3.0,100,0.00,,,0.00,Wunderground v.1.15,2013-01-26 18:06:00,
2013-01-26 13:08:00,76.8,76.8,30.11,North,356,1.0,3.0,100,0.00,,,0.00,Wunderground v.1.15,2013-01-26 18:08:00,
2013-01-26 13:09:00,76.8,76.8,30.11,North,356,1.0,3.0,100,0.00,,,0.00,Wunderground v.1.15,2013-01-26 18:09:00,
2013-01-26 13:14:00,77.6,77.6,30.11,North,4,2.0,6.0,100,0.00,,,0.00,Wunderground v.1.15,2013-01-26 18:14:00,
2013-01-26 13:15:00,77.6,77.6,30.11,North,4,2.0,6.0,100,0.00,,,0.00,Wunderground v.1.15,2013-01-26 18:15:00,
2013-01-26 13:16:00,77.6,77.6,30.10,North,4,2.0,6.0,100,0.00,,,0.00,Wunderground v.1.15,2013-01-26 18:16:00,
2013-01-26 13:17:00,77.6,77.6,30.10,North,4,3.0,6.0,100,0.00,,,0.00,Wunderground v.1.15,2013-01-26 18:17:00,
2013-01-26 13:20:00,77.6,77.6,30.10,North,6,3.0,3.0,100,0.00,,,0.00,Wunderground v.1.15,2013-01-26 18:20:00,
2013-01-26 13:23:00,78.1,78.1,30.10,North,0,3.0,3.0,100,0.00,,,0.00,Wunderground v.1.15,2013-01-26 18:23:00,
2013-01-26 13:25:00,78.1,78.1,30.10,North,349,2.0,3.0,100,0.00,,,0.00,Wunderground v.1.15,2013-01-26 18:25:00,
2013-01-26 13:30:00,77.7,77.7,30.10,North,356,3.0,3.0,100,0.00,,,0.00,Wunderground v.1.15,2013-01-26 18:30:00,
2013-01-26 13:31:00,77.2,77.2,30.09,North,356,3.0,3.0,100,0.00,,,0.00,Wunderground v.1.15,2013-01-26 18:31:00,
2013-01-26 13:33:00,77.2,77.2,30.09,North,356,3.0,3.0,100,0.00,,,0.00,Wunderground v.1.15,2013-01-26 18:33:00,
2013-01-26 13:34:00,77.2,77.2,30.09,North,356,3.0,3.0,100,0.00,,,0.00,Wunderground v.1.15,2013-01-26 18:34:00,
2013-01-26 13:38:00,77.6,77.6,30.09,North,357,3.0,3.0,100,0.00,,,0.00,Wunderground v.1.15,2013-01-26 18:38:00,
2013-01-26 13:40:00,77.6,77.6,30.09,North,357,3.0,3.0,100,0.00,,,0.00,Wunderground v.1.15,2013-01-26 18:40:00,
2013-01-26 13:43:00,77.6,77.6,30.09,North,357,2.0,3.0,100,0.00,,,0.00,Wunderground v.1.15,2013-01-26 18:43:00,
2013-01-26 13:44:00,78.3,78.3,30.09,North,359,2.0,3.0,100,0.00,,,0.00,Wunderground v.1.15,2013-01-26 18:44:00,
2013-01-26 13:47:00,78.3,78.3,30.09,North,359,2.0,3.0,100,0.00,,,0.00,Wunderground v.1.15,2013-01-26 18:47:00,
2013-01-26 13:50:00,78.6,78.6,30.09,NNW,336,1.0,2.0,100,0.00,,,0.00,Wunderground v.1.15,2013-01-26 18:50:00,
2013-01-26 13:52:00,78.8,78.8,30.09,NNW,336,2.0,3.0,100,0.00,,,0.00,Wunderground v.1.15,2013-01-26 18:52:00,
2013-01-26 13:54:00,78.8,78.8,30.09,West,267,1.0,3.0,100,0.00,,,0.00,Wunderground v.1.15,2013-01-26 18:54:00,
2013-01-26 13:57:00,78.8,78.8,30.09,NW,325,1.0,3.0,100,0.00,,,0.00,Wunderground v.1.15,2013-01-26 18:57:00,
2013-01-26 13:58:00,78.8,78.8,30.09,NNW,340,1.0,3.0,100,0.00,,,0.00,Wunderground v.1.15,2013-01-26 18:58:00,
2013-01-26 14:01:00,78.8,78.8,30.09,NNW,340,1.0,1.0,100,0.00,,,0.00,Wunderground v.1.15,2013-01-26 19:01:00,
2013-01-26 14:04:00,78.8,78.8,30.09,NNW,340,0.0,1.0,100,0.00,,,0.00,Wunderground v.1.15,2013-01-26 19:04:00,
2013-01-26 14:05:00,78.8,78.8,30.09,NNW,340,0.0,1.0,100,0.00,,,0.00,Wunderground v.1.15,2013-01-26 19:05:00,
2013-01-26 14:06:00,78.8,78.8,30.09,North,356,2.0,2.0,100,0.00,,,0.00,Wunderground v.1.15,2013-01-26 19:06:00,
2013-01-26 14:07:00,78.8,78.8,30.09,North,359,3.0,3.0,100,0.00,,,0.00,Wunderground v.1.15,2013-01-26 19:07:00,
2013-01-26 14:11:00,78.6,78.6,30.09,North,359,1.0,2.0,100,0.00,,,0.00,Wunderground v.1.15,2013-01-26 19:11:00,
2013-01-26 14:12:00,78.6,78.6,30.09,North,359,1.0,2.0,100,0.00,,,0.00,Wunderground v.1.15,2013-01-26 19:12:00,
2013-01-26 14:14:00,78.6,78.6,30.09,North,359,1.0,2.0,100,0.00,,,0.00,Wunderground v.1.15,2013-01-26 19:14:00,
2013-01-26 14:17:00,78.6,78.6,30.08,North,357,1.0,5.0,100,0.00,,,0.00,Wunderground v.1.15,2013-01-26 19:17:00,
2013-01-26 14:18:00,78.6,78.6,30.08,North,359,1.0,5.0,100,0.00,,,0.00,Wunderground v.1.15,2013-01-26 19:18:00,
2013-01-26 14:19:00,78.5,78.5,30.08,NE,52,1.0,5.0,100,0.00,,,0.00,Wunderground v.1.15,2013-01-26 19:19:00,
2013-01-26 14:20:00,78.5,78.5,30.08,NE,52,1.0,1.0,100,0.00,,,0.00,Wunderground v.1.15,2013-01-26 19:20:00,
2013-01-26 14:25:00,78.5,78.5,30.08,ESE,120,2.0,3.0,100,0.00,,,0.00,Wunderground v.1.15,2013-01-26 19:25:00,
2013-01-26 14:26:00,78.5,78.5,30.08,ESE,119,2.0,3.0,100,0.00,,,0.00,Wunderground v.1.15,2013-01-26 19:26:00,
2013-01-26 14:27:00,78.1,78.1,30.08,ESE,110,2.0,3.0,100,0.00,,,0.00,Wunderground v.1.15,2013-01-26 19:27:00,
2013-01-26 14:28:00,78.1,78.1,30.08,East,100,2.0,3.0,100,0.00,,,0.00,Wunderground v.1.15,2013-01-26 19:28:00,
2013-01-26 14:31:00,78.1,78.1,30.08,ESE,109,3.0,7.0,100,0.00,,,0.00,Wunderground v.1.15,2013-01-26 19:31:00,
2013-01-26 14:32:00,78.1,78.1,30.08,ESE,104,3.0,7.0,100,0.00,,,0.00,Wunderground v.1.15,2013-01-26 19:32:00,
2013-01-26 14:36:00,77.7,77.7,30.08,SSE,157,3.0,7.0,100,0.00,,,0.00,Wunderground v.1.15,2013-01-26 19:36:00,
2013-01-26 14:38:00,77.6,77.6,30.08,SE,138,3.0,7.0,100,0.00,,,0.00,Wunderground v.1.15,2013-01-26 19:38:00,
2013-01-26 14:39:00,77.6,77.6,30.08,ESE,110,3.0,7.0,100,0.00,,,0.00,Wunderground v.1.15,2013-01-26 19:39:00,
2013-01-26 14:41:00,77.4,77.4,30.08,East,88,3.0,7.0,100,0.00,,,0.00,Wunderground v.1.15,2013-01-26 19:41:00,
2013-01-26 14:44:00,77.4,77.4,30.08,East,95,3.0,7.0,100,0.00,,,0.00,Wunderground v.1.15,2013-01-26 19:44:00,
2013-01-26 14:45:00,77.2,-99.9,30.08,East,95,3.0,7.0,0,0.00,,,0.00,Wunderground v.1.15,2013-01-26 19:45:00,
2013-01-26 14:48:00,77.6,-99.9,30.08,ESE,103,3.0,7.0,0,0.00,,,0.00,Wunderground v.1.15,2013-01-26 19:48:00,
2013-01-26 14:51:00,77.7,-99.9,30.08,East,85,3.0,3.0,0,0.00,,,0.00,Wunderground v.1.15,2013-01-26 19:51:00,
2013-01-26 14:54:00,77.4,77.4,30.08,ENE,71,3.0,5.0,100,0.00,,,0.00,Wunderground v.1.15,2013-01-26 19:54:00,
2013-01-26 14:55:00,77.4,77.4,30.08,ESE,112,3.0,7.0,100,0.00,,,0.00,Wunderground v.1.15,2013-01-26 19:55:00,
2013-01-26 14:57:00,77.2,77.2,30.08,ESE,102,3.0,7.0,100,0.00,,,0.00,Wunderground v.1.15,2013-01-26 19:57:00,
2013-01-26 15:03:00,77.2,77.2,30.08,ESE,103,2.0,3.0,100,0.00,,,0.00,Wunderground v.1.15,2013-01-26 20:03:00,
2013-01-26 15:05:00,77.2,-99.9,30.08,ESE,106,2.0,5.0,0,0.00,,,0.00,Wunderground v.1.15,2013-01-26 20:05:00,
2013-01-26 15:06:00,77.2,-99.9,30.08,East,100,2.0,5.0,0,0.00,,,0.00,Wunderground v.1.15,2013-01-26 20:06:00,
2013-01-26 15:07:00,77.2,-99.9,30.08,ESE,103,3.0,5.0,0,0.00,,,0.00,Wunderground v.1.15,2013-01-26 20:07:00,
2013-01-26 15:09:00,77.2,-99.9,30.08,ESE,103,3.0,6.0,0,0.00,,,0.00,Wunderground v.1.15,2013-01-26 20:09:00,
2013-01-26 15:13:00,77.2,-99.9,30.08,East,100,4.0,6.0,0,0.00,,,0.00,Wunderground v.1.15,2013-01-26 20:13:00,
2013-01-26 15:14:00,77.2,-99.9,30.08,ESE,102,4.0,6.0,0,0.00,,,0.00,Wunderground v.1.15,2013-01-26 20:14:00,
2013-01-26 15:16:00,77.2,-99.9,30.08,SE,133,3.0,6.0,0,0.00,,,0.00,Wunderground v.1.15,2013-01-26 20:16:00,
2013-01-26 15:19:00,77.2,-99.9,30.08,ESE,114,3.0,6.0,0,0.00,,,0.00,Wunderground v.1.15,2013-01-26 20:19:00,
2013-01-26 15:20:00,77.7,-99.9,30.08,SSE,160,3.0,5.0,0,0.00,,,0.00,Wunderground v.1.15,2013-01-26 20:20:00,
2013-01-26 15:22:00,77.7,-99.9,30.08,SSE,155,3.0,5.0,0,0.00,,,0.00,Wunderground v.1.15,2013-01-26 20:22:00,
2013-01-26 15:27:00,77.6,-99.9,30.08,ESE,116,3.0,6.0,0,0.00,,,0.00,Wunderground v.1.15,2013-01-26 20:27:00,
2013-01-26 15:28:00,77.6,-99.9,30.08,ENE,72,3.0,6.0,0,0.00,,,0.00,Wunderground v.1.15,2013-01-26 20:28:00,
2013-01-26 15:29:00,77.6,-99.9,30.08,ESE,123,3.0,6.0,0,0.00,,,0.00,Wunderground v.1.15,2013-01-26 20:29:00,
2013-01-26 15:31:00,77.6,-99.9,30.08,SE,138,3.0,6.0,0,0.00,,,0.00,Wunderground v.1.15,2013-01-26 20:31:00,
2013-01-26 15:34:00,77.6,-99.9,30.08,SSE,168,3.0,6.0,0,0.00,,,0.00,Wunderground v.1.15,2013-01-26 20:34:00,
2013-01-26 15:36:00,77.6,-99.9,30.08,ESE,103,4.0,6.0,0,0.00,,,0.00,Wunderground v.1.15,2013-01-26 20:36:00,
2013-01-26 15:38:00,77.7,-99.9,30.08,ESE,112,3.0,6.0,0,0.00,,,0.00,Wunderground v.1.15,2013-01-26 20:38:00,
2013-01-26 15:40:00,77.7,-99.9,30.08,ESE,114,3.0,3.0,0,0.00,,,0.00,Wunderground v.1.15,2013-01-26 20:40:00,
2013-01-26 15:42:00,77.7,-99.9,30.08,ESE,110,3.0,3.0,0,0.00,,,0.00,Wunderground v.1.15,2013-01-26 20:42:00,
2013-01-26 15:44:00,77.7,-99.9,30.08,ESE,117,2.0,3.0,0,0.00,,,0.00,Wunderground v.1.15,2013-01-26 20:44:00,
2013-01-26 15:48:00,77.4,-99.9,30.08,SE,126,3.0,8.0,0,0.00,,,0.00,Wunderground v.1.15,2013-01-26 20:48:00,
2013-01-26 15:49:00,76.8,-99.9,30.08,East,79,4.0,8.0,0,0.00,,,0.00,Wunderground v.1.15,2013-01-26 20:49:00,
2013-01-26 15:51:00,76.7,-99.9,30.08,East,89,4.0,4.0,0,0.00,,,0.00,Wunderground v.1.15,2013-01-26 20:51:00,
2013-01-26 15:54:00,76.7,-99.9,30.08,ESE,107,4.0,6.0,0,0.00,,,0.00,Wunderground v.1.15,2013-01-26 20:54:00,
2013-01-26 15:55:00,76.5,-99.9,30.08,East,90,5.0,6.0,0,0.00,,,0.00,Wunderground v.1.15,2013-01-26 20:55:00,
2013-01-26 15:56:00,76.5,-99.9,30.08,East,90,4.0,6.0,0,0.00,,,0.00,Wunderground v.1.15,2013-01-26 20:56:00,
2013-01-26 16:00:00,76.3,-99.9,30.08,ENE,65,4.0,4.0,0,0.00,,,0.00,Wunderground v.1.15,2013-01-26 21:00:00,
2013-01-26 16:02:00,76.3,-99.9,30.08,ESE,107,4.0,6.0,0,0.00,,,0.00,Wunderground v.1.15,2013-01-26 21:02:00,
2013-01-26 16:06:00,76.7,-99.9,30.08,ESE,117,4.0,6.0,0,0.00,,,0.00,Wunderground v.1.15,2013-01-26 21:06:00,
2013-01-26 16:07:00,76.7,-99.9,30.08,ESE,106,4.0,6.0,0,0.00,,,0.00,Wunderground v.1.15,2013-01-26 21:07:00,
2013-01-26 16:08:00,76.7,-99.9,30.08,ESE,109,3.0,6.0,0,0.00,,,0.00,Wunderground v.1.15,2013-01-26 21:08:00,
2013-01-26 16:09:00,76.7,-99.9,30.08,ESE,113,3.0,6.0,0,0.00,,,0.00,Wunderground v.1.15,2013-01-26 21:09:00,
2013-01-26 16:13:00,76.5,-99.9,30.08,ESE,119,4.0,5.0,0,0.00,,,0.00,Wunderground v.1.15,2013-01-26 21:13:00,
2013-01-26 16:14:00,76.5,-99.9,30.08,East,92,3.0,5.0,0,0.00,,,0.00,Wunderground v.1.15,2013-01-26 21:14:00,
2013-01-26 16:15:00,76.5,-99.9,30.08,ESE,107,3.0,5.0,0,0.00,,,0.00,Wunderground v.1.15,2013-01-26 21:15:00,
2013-01-26 16:18:00,76.1,-99.9,30.08,East,93,4.0,7.0,0,0.00,,,0.00,Wunderground v.1.15,2013-01-26 21:18:00,
2013-01-26 16:19:00,76.3,-99.9,30.08,ENE,76,4.0,7.0,0,0.00,,,0.00,Wunderground v.1.15,2013-01-26 21:19:00,
2013-01-26 16:20:00,76.3,-99.9,30.08,ESE,109,3.0,6.0,0,0.00,,,0.00,Wunderground v.1.15,2013-01-26 21:20:00,
2013-01-26 16:21:00,76.1,-99.9,30.08,East,92,3.0,6.0,0,0.00,,,0.00,Wunderground v.1.15,2013-01-26 21:21:00,
2013-01-26 16:26:00,75.8,-99.9,30.08,ESE,106,3.0,6.0,0,0.00,,,0.00,Wunderground v.1.15,2013-01-26 21:26:00,
2013-01-26 16:27:00,75.6,-99.9,30.08,East,82,3.0,6.0,0,0.00,,,0.00,Wunderground v.1.15,2013-01-26 21:27:00,
2013-01-26 16:31:00,75.4,-99.9,30.08,East,79,4.0,5.0,0,0.00,,,0.00,Wunderground v.1.15,2013-01-26 21:31:00,
2013-01-26 16:32:00,75.4,-99.9,30.08,East,96,4.0,5.0,0,0.00,,,0.00,Wunderground v.1.15,2013-01-26 21:32:00,
2013-01-26 16:33:00,75.4,-99.9,30.08,SE,126,5.0,6.0,0,0.00,,,0.00,Wunderground v.1.15,2013-01-26 21:33:00,
2013-01-26 16:38:00,75.6,-99.9,30.08,East,96,4.0,6.0,0,0.00,,,0.00,Wunderground v.1.15,2013-01-26 21:38:00,
2013-01-26 16:39:00,75.6,-99.9,30.08,East,90,4.0,6.0,0,0.00,,,0.00,Wunderground v.1.15,2013-01-26 21:39:00,
2013-01-26 16:43:00,75.4,-99.9,30.08,East,86,3.0,4.0,0,0.00,,,0.00,Wunderground v.1.15,2013-01-26 21:43:00,
2013-01-26 16:45:00,75.4,-99.9,30.08,ESE,117,3.0,5.0,0,0.00,,,0.00,Wunderground v.1.15,2013-01-26 21:45:00,
2013-01-26 16:46:00,75.4,-99.9,30.08,ESE,116,3.0,5.0,0,0.00,,,0.00,Wunderground v.1.15,2013-01-26 21:46:00,
2013-01-26 16:49:00,75.3,-99.9,30.08,SE,131,3.0,5.0,0,0.00,,,0.00,Wunderground v.1.15,2013-01-26 21:49:00,
2013-01-26 16:52:00,75.3,-99.9,30.08,SE,144,3.0,6.0,0,0.00,,,0.00,Wunderground v.1.15,2013-01-26 21:52:00,
2013-01-26 16:53:00,75.3,-99.9,30.08,East,97,3.0,6.0,0,0.00,,,0.00,Wunderground v.1.15,2013-01-26 21:53:00,
2013-01-26 16:55:00,75.3,-99.9,30.08,ESE,106,3.0,6.0,0,0.00,,,0.00,Wunderground v.1.15,2013-01-26 21:55:00,
2013-01-26 17:00:00,75.3,-99.9,30.09,East,99,4.0,6.0,0,0.00,,,0.00,Wunderground v.1.15,2013-01-26 22:00:00,
2013-01-26 17:02:00,75.3,-99.9,30.09,ESE,120,4.0,6.0,0,0.00,,,0.00,Wunderground v.1.15,2013-01-26 22:02:00,
2013-01-26 17:03:00,74.9,-99.9,30.09,East,86,4.0,6.0,0,0.00,,,0.00,Wunderground v.1.15,2013-01-26 22:03:00,
2013-01-26 17:07:00,74.6,-99.9,30.09,East,86,3.0,6.0,0,0.00,,,0.00,Wunderground v.1.15,2013-01-26 22:07:00,
2013-01-26 17:08:00,74.6,-99.9,30.09,East,86,3.0,6.0,0,0.00,,,0.00,Wunderground v.1.15,2013-01-26 22:08:00,
2013-01-26 17:10:00,74.6,-99.9,30.09,East,97,3.0,4.0,0,0.00,,,0.00,Wunderground v.1.15,2013-01-26 22:10:00,
2013-01-26 17:11:00,74.6,-99.9,30.09,ESE,116,3.0,6.0,0,0.00,,,0.00,Wunderground v.1.15,2013-01-26 22:11:00,
2013-01-26 17:15:00,74.2,-99.9,30.09,ESE,103,4.0,6.0,0,0.00,,,0.00,Wunderground v.1.15,2013-01-26 22:15:00,
2013-01-26 17:16:00,74.2,-99.9,30.09,ESE,107,4.0,6.0,0,0.00,,,0.00,Wunderground v.1.15,2013-01-26 22:16:00,
2013-01-26 17:17:00,74.0,-99.9,30.09,ESE,114,4.0,6.0,0,0.00,,,0.00,Wunderground v.1.15,2013-01-26 22:17:00,
2013-01-26 17:20:00,73.9,-99.9,30.09,ESE,123,4.0,4.0,0,0.00,,,0.00,Wunderground v.1.15,2013-01-26 22:20:00,
2013-01-26 17:21:00,73.9,-99.9,30.09,ESE,104,4.0,5.0,0,0.00,,,0.00,Wunderground v.1.15,2013-01-26 22:21:00,
2013-01-26 17:25:00,73.9,-99.9,30.09,ESE,102,4.0,6.0,0,0.00,,,0.00,Wunderground v.1.15,2013-01-26 22:25:00,
2013-01-26 17:26:00,73.9,-99.9,30.09,SE,140,4.0,6.0,0,0.00,,,0.00,Wunderground v.1.15,2013-01-26 22:26:00,
2013-01-26 17:29:00,73.7,-99.9,30.09,SE,124,4.0,6.0,0,0.00,,,0.00,Wunderground v.1.15,2013-01-26 22:29:00,
2013-01-26 17:30:00,73.5,-99.9,30.09,ESE,123,3.0,3.0,0,0.00,,,0.00,Wunderground v.1.15,2013-01-26 22:30:00,
2013-01-26 17:32:00,73.5,-99.9,30.09,SE,124,3.0,3.0,0,0.00,,,0.00,Wunderground v.1.15,2013-01-26 22:32:00,
2013-01-26 17:34:00,73.5,-99.9,30.09,ESE,110,3.0,3.0,0,0.00,,,0.00,Wunderground v.1.15,2013-01-26 22:34:00,
2013-01-26 17:35:00,73.3,-99.9,30.09,East,97,3.0,5.0,0,0.00,,,0.00,Wunderground v.1.15,2013-01-26 22:35:00,
2013-01-26 17:36:00,73.3,-99.9,30.09,East,97,3.0,5.0,0,0.00,,,0.00,Wunderground v.1.15,2013-01-26 22:36:00,
2013-01-26 17:40:00,73.2,-99.9,30.09,East,95,2.0,2.0,0,0.00,,,0.00,Wunderground v.1.15,2013-01-26 22:40:00,
2013-01-26 17:42:00,73.2,-99.9,30.09,East,95,2.0,2.0,0,0.00,,,0.00,Wunderground v.1.15,2013-01-26 22:42:00,
2013-01-26 17:44:00,73.2,-99.9,30.09,East,96,2.0,3.0,0,0.00,,,0.00,Wunderground v.1.15,2013-01-26 22:44:00,
2013-01-26 17:47:00,73.2,-99.9,30.09,East,99,2.0,5.0,0,0.00,,,0.00,Wunderground v.1.15,2013-01-26 22:47:00,
2013-01-26 17:48:00,73.2,-99.9,30.09,East,99,2.0,5.0,0,0.00,,,0.00,Wunderground v.1.15,2013-01-26 22:48:00,
2013-01-26 17:53:00,72.8,-12.7,30.09,East,99,2.0,5.0,3,0.00,,,0.00,Wunderground v.1.15,2013-01-26 22:53:00,
2013-01-26 17:54:00,72.8,-12.7,30.09,East,100,2.0,5.0,3,0.00,,,0.00,Wunderground v.1.15,2013-01-26 22:54:00,
2013-01-26 17:56:00,72.8,-12.7,30.09,ESE,102,2.0,5.0,3,0.00,,,0.00,Wunderground v.1.15,2013-01-26 22:56:00,
2013-01-26 17:57:00,72.8,-12.7,30.09,ESE,102,2.0,5.0,3,0.00,,,0.00,Wunderground v.1.15,2013-01-26 22:57:00,
2013-01-26 17:59:00,72.5,-12.9,30.09,ESE,102,2.0,5.0,3,0.00,,,0.00,Wunderground v.1.15,2013-01-26 22:59:00,
2013-01-26 18:03:00,72.5,-12.9,30.10,ESE,102,2.0,3.0,3,0.00,,,0.00,Wunderground v.1.15,2013-01-26 23:03:00,
2013-01-26 18:04:00,72.5,-12.9,30.10,ESE,102,1.0,3.0,3,0.00,,,0.00,Wunderground v.1.15,2013-01-26 23:04:00,
2013-01-26 18:06:00,72.5,-12.9,30.10,ESE,102,1.0,3.0,3,0.00,,,0.00,Wunderground v.1.15,2013-01-26 23:06:00,
2013-01-26 18:09:00,72.5,-12.9,30.10,ESE,102,1.0,3.0,3,0.00,,,0.00,Wunderground v.1.15,2013-01-26 23:09:00,
2013-01-26 18:11:00,72.5,-12.9,30.10,ESE,102,1.0,1.0,3,0.00,,,0.00,Wunderground v.1.15,2013-01-26 23:11:00,
2013-01-26 18:12:00,72.5,-12.9,30.10,ESE,102,1.0,1.0,3,0.00,,,0.00,Wunderground v.1.15,2013-01-26 23:12:00,
2013-01-26 18:17:00,71.8,-13.4,30.10,ESE,102,0.0,1.0,3,0.00,,,0.00,Wunderground v.1.15,2013-01-26 23:17:00,
2013-01-26 18:18:00,71.8,-13.4,30.10,ESE,102,0.0,1.0,3,0.00,,,0.00,Wunderground v.1.15,2013-01-26 23:18:00,
2013-01-26 18:19:00,71.8,9.9,30.10,ESE,102,0.0,1.0,9,0.00,,,0.00,Wunderground v.1.15,2013-01-26 23:19:00,
2013-01-26 18:22:00,71.6,9.7,30.10,ESE,102,0.0,0.0,9,0.00,,,0.00,Wunderground v.1.15,2013-01-26 23:22:00,
2013-01-26 18:25:00,71.6,12.1,30.10,ESE,102,0.0,0.0,10,0.00,,,0.00,Wunderground v.1.15,2013-01-26 23:25:00,
2013-01-26 18:27:00,71.6,12.1,30.10,ESE,102,0.0,0.0,10,0.00,,,0.00,Wunderground v.1.15,2013-01-26 23:27:00,
2013-01-26 18:28:00,71.6,12.1,30.10,ESE,102,0.0,0.0,10,0.00,,,0.00,Wunderground v.1.15,2013-01-26 23:28:00,
2013-01-26 18:29:00,71.3,11.8,30.10,ESE,102,0.0,0.0,10,0.00,,,0.00,Wunderground v.1.15,2013-01-26 23:29:00,
2013-01-26 18:33:00,71.1,11.7,30.10,ESE,102,0.0,0.0,10,0.00,,,0.00,Wunderground v.1.15,2013-01-26 23:33:00,
2013-01-26 18:34:00,71.1,11.7,30.10,ESE,102,0.0,0.0,10,0.00,,,0.00,Wunderground v.1.15,2013-01-26 23:34:00,
2013-01-26 18:38:00,70.9,11.5,30.10,ESE,102,0.0,0.0,10,0.00,,,0.00,Wunderground v.1.15,2013-01-26 23:38:00,
2013-01-26 18:39:00,70.9,17.5,30.10,ESE,102,0.0,0.0,13,0.00,,,0.00,Wunderground v.1.15,2013-01-26 23:39:00,
2013-01-26 18:40:00,70.9,17.5,30.10,ESE,102,0.0,0.0,13,0.00,,,0.00,Wunderground v.1.15,2013-01-26 23:40:00,
2013-01-26 18:44:00,70.8,17.5,30.10,ESE,102,0.0,0.0,13,0.00,,,0.00,Wunderground v.1.15,2013-01-26 23:44:00,
2013-01-26 18:46:00,70.8,17.5,30.10,ESE,102,0.0,0.0,13,0.00,,,0.00,Wunderground v.1.15,2013-01-26 23:46:00,
2013-01-26 18:48:00,70.6,17.3,30.10,ESE,102,0.0,0.0,13,0.00,,,0.00,Wunderground v.1.15,2013-01-26 23:48:00,
2013-01-26 18:49:00,70.6,22.2,30.10,ESE,102,0.0,0.0,16,0.00,,,0.00,Wunderground v.1.15,2013-01-26 23:49:00,
2013-01-26 18:50:00,70.6,22.2,30.10,ESE,102,0.0,0.0,16,0.00,,,0.00,Wunderground v.1.15,2013-01-26 23:50:00,
2013-01-26 18:51:00,70.4,22.0,30.10,ESE,102,0.0,0.0,16,0.00,,,0.00,Wunderground v.1.15,2013-01-26 23:51:00,
2013-01-26 18:54:00,70.4,22.0,30.10,ESE,102,0.0,0.0,16,0.00,,,0.00,Wunderground v.1.15,2013-01-26 23:54:00,
2013-01-26 18:55:00,70.4,22.0,30.10,ESE,102,0.0,0.0,16,0.00,,,0.00,Wunderground v.1.15,2013-01-26 23:55:00,
2013-01-26 18:57:00,70.4,22.0,30.10,ESE,102,0.0,0.0,16,0.00,,,0.00,Wunderground v.1.15,2013-01-26 23:57:00,
2013-01-26 19:01:00,70.3,21.9,30.10,ESE,102,0.0,0.0,16,0.00,,,0.00,Wunderground v.1.15,2013-01-27 00:01:00,
2013-01-26 19:06:00,70.1,21.8,30.10,ESE,102,0.0,0.0,16,0.00,,,0.00,Wunderground v.1.15,2013-01-27 00:06:00,
2013-01-26 19:07:00,70.1,21.8,30.10,ESE,102,0.0,0.0,16,0.00,,,0.00,Wunderground v.1.15,2013-01-27 00:07:00,
2013-01-26 19:08:00,70.1,21.8,30.10,ESE,102,0.0,0.0,16,0.00,,,0.00,Wunderground v.1.15,2013-01-27 00:08:00,
2013-01-26 19:11:00,69.9,27.0,30.10,ESE,102,0.0,0.0,20,0.00,,,0.00,Wunderground v.1.15,2013-01-27 00:11:00,
2013-01-26 19:12:00,69.9,27.0,30.10,ESE,102,0.0,0.0,20,0.00,,,0.00,Wunderground v.1.15,2013-01-27 00:12:00,
2013-01-26 19:14:00,69.9,27.0,30.10,ESE,102,0.0,0.0,20,0.00,,,0.00,Wunderground v.1.15,2013-01-27 00:14:00,
2013-01-26 19:17:00,69.8,26.9,30.10,ESE,102,0.0,0.0,20,0.00,,,0.00,Wunderground v.1.15,2013-01-27 00:17:00,
2013-01-26 19:18:00,69.8,26.9,30.10,ESE,102,0.0,0.0,20,0.00,,,0.00,Wunderground v.1.15,2013-01-27 00:18:00,
2013-01-26 19:19:00,69.8,29.2,30.10,ESE,102,0.0,0.0,22,0.00,,,0.00,Wunderground v.1.15,2013-01-27 00:19:00,
2013-01-26 19:20:00,69.8,29.2,30.10,ESE,102,0.0,0.0,22,0.00,,,0.00,Wunderground v.1.15,2013-01-27 00:20:00,
2013-01-26 19:25:00,69.8,29.2,30.10,ESE,102,0.0,0.0,22,0.00,,,0.00,Wunderground v.1.15,2013-01-27 00:25:00,
2013-01-26 19:26:00,69.6,29.0,30.10,ESE,102,0.0,0.0,22,0.00,,,0.00,Wunderground v.1.15,2013-01-27 00:26:00,
2013-01-26 19:27:00,69.6,29.0,30.10,ESE,102,0.0,0.0,22,0.00,,,0.00,Wunderground v.1.15,2013-01-27 00:27:00,
2013-01-26 19:28:00,69.6,29.0,30.10,ESE,102,0.0,0.0,22,0.00,,,0.00,Wunderground v.1.15,2013-01-27 00:28:00,
2013-01-26 19:31:00,69.6,31.2,30.11,ESE,102,0.0,0.0,24,0.00,,,0.00,Wunderground v.1.15,2013-01-27 00:31:00,
2013-01-26 19:33:00,69.6,31.2,30.11,ESE,102,0.0,0.0,24,0.00,,,0.00,Wunderground v.1.15,2013-01-27 00:33:00,
2013-01-26 19:34:00,69.6,31.2,30.11,ESE,102,0.0,0.0,24,0.00,,,0.00,Wunderground v.1.15,2013-01-27 00:34:00,
2013-01-26 19:39:00,69.6,33.2,30.11,ESE,102,0.0,0.0,26,0.00,,,0.00,Wunderground v.1.15,2013-01-27 00:39:00,
2013-01-26 19:40:00,69.6,33.2,30.11,ESE,102,0.0,0.0,26,0.00,,,0.00,Wunderground v.1.15,2013-01-27 00:40:00,
2013-01-26 19:41:00,69.6,33.2,30.11,ESE,102,0.0,0.0,26,0.00,,,0.00,Wunderground v.1.15,2013-01-27 00:41:00,
2013-01-26 19:43:00,69.6,33.2,30.11,ESE,102,0.0,0.0,26,0.00,,,0.00,Wunderground v.1.15,2013-01-27 00:43:00,
2013-01-26 19:45:00,69.6,33.2,30.11,ESE,102,0.0,0.0,26,0.00,,,0.00,Wunderground v.1.15,2013-01-27 00:45:00,
2013-01-26 19:47:00,69.6,33.2,30.11,ESE,102,0.0,0.0,26,0.00,,,0.00,Wunderground v.1.15,2013-01-27 00:47:00,
2013-01-26 19:48:00,69.6,35.0,30.11,ESE,102,0.0,0.0,28,0.00,,,0.00,Wunderground v.1.15,2013-01-27 00:48:00,
2013-01-26 19:50:00,69.1,34.6,30.11,ESE,102,0.0,0.0,28,0.00,,,0.00,Wunderground v.1.15,2013-01-27 00:50:00,
2013-01-26 19:52:00,68.9,34.4,30.11,ESE,102,0.0,0.0,28,0.00,,,0.00,Wunderground v.1.15,2013-01-27 00:52:00,
2013-01-26 19:55:00,68.9,34.4,30.11,ESE,102,0.0,0.0,28,0.00,,,0.00,Wunderground v.1.15,2013-01-27 00:55:00,
2013-01-26 19:56:00,68.9,34.4,30.11,ESE,102,0.0,0.0,28,0.00,,,0.00,Wunderground v.1.15,2013-01-27 00:56:00,
2013-01-26 19:58:00,68.9,35.3,30.11,ESE,102,0.0,0.0,29,0.00,,,0.00,Wunderground v.1.15,2013-01-27 00:58:00,
2013-01-26 19:59:00,68.9,35.3,30.11,ESE,102,0.0,0.0,29,0.00,,,0.00,Wunderground v.1.15,2013-01-27 00:59:00,
2013-01-26 20:02:00,68.8,35.2,30.11,ESE,102,0.0,0.0,29,0.00,,,0.00,Wunderground v.1.15,2013-01-27 01:02:00,
2013-01-26 20:04:00,68.8,36.1,30.11,ESE,102,0.0,0.0,30,0.00,,,0.00,Wunderground v.1.15,2013-01-27 01:04:00,
2013-01-26 20:05:00,68.8,36.1,30.11,ESE,102,0.0,0.0,30,0.00,,,0.00,Wunderground v.1.15,2013-01-27 01:05:00,
2013-01-26 20:07:00,68.8,36.1,30.11,ESE,102,0.0,0.0,30,0.00,,,0.00,Wunderground v.1.15,2013-01-27 01:07:00,
2013-01-26 20:09:00,68.8,37.7,30.11,ESE,102,0.0,0.0,32,0.00,,,0.00,Wunderground v.1.15,2013-01-27 01:09:00,
2013-01-26 20:11:00,68.8,37.7,30.11,ESE,102,0.0,0.0,32,0.00,,,0.00,Wunderground v.1.15,2013-01-27 01:11:00,
2013-01-26 20:13:00,68.8,37.7,30.11,ESE,102,0.0,0.0,32,0.00,,,0.00,Wunderground v.1.15,2013-01-27 01:13:00,
2013-01-26 20:17:00,68.4,37.4,30.11,ESE,102,0.0,0.0,32,0.00,,,0.00,Wunderground v.1.15,2013-01-27 01:17:00,
2013-01-26 20:18:00,68.4,37.4,30.11,ESE,102,0.0,0.0,32,0.00,,,0.00,Wunderground v.1.15,2013-01-27 01:18:00,
2013-01-26 20:20:00,68.4,40.4,30.11,ESE,102,0.0,0.0,36,0.00,,,0.00,Wunderground v.1.15,2013-01-27 01:20:00,
2013-01-26 20:22:00,68.3,40.3,30.11,ESE,102,0.0,0.0,36,0.00,,,0.00,Wunderground v.1.15,2013-01-27 01:22:00,
2013-01-26 20:25:00,68.3,42.4,30.11,ESE,102,0.0,0.0,39,0.00,,,0.00,Wunderground v.1.15,2013-01-27 01:25:00,
2013-01-26 20:28:00,68.3,42.4,30.11,ESE,102,0.0,0.0,39,0.00,,,0.00,Wunderground v.1.15,2013-01-27 01:28:00,
2013-01-26 20:30:00,68.3,43.7,30.11,ESE,102,0.0,0.0,41,0.00,,,0.00,Wunderground v.1.15,2013-01-27 01:30:00,
2013-01-26 20:31:00,68.1,43.5,30.11,ESE,102,0.0,0.0,41,0.00,,,0.00,Wunderground v.1.15,2013-01-27 01:31:00,
2013-01-26 20:35:00,68.1,44.7,30.11,ESE,102,0.0,0.0,43,0.00,,,0.00,Wunderground v.1.15,2013-01-27 01:35:00,
2013-01-26 20:36:00,68.1,44.7,30.11,ESE,102,0.0,0.0,43,0.00,,,0.00,Wunderground v.1.15,2013-01-27 01:36:00,
2013-01-26 20:37:00,67.9,44.6,30.11,ESE,102,0.0,0.0,43,0.00,,,0.00,Wunderground v.1.15,2013-01-27 01:37:00,
2013-01-26 20:39:00,67.9,46.3,30.11,ESE,102,0.0,0.0,46,0.00,,,0.00,Wunderground v.1.15,2013-01-27 01:39:00,
2013-01-26 20:42:00,67.9,46.3,30.11,ESE,102,0.0,0.0,46,0.00,,,0.00,Wunderground v.1.15,2013-01-27 01:42:00,
2013-01-26 20:43:00,67.9,46.3,30.11,ESE,102,0.0,0.0,46,0.00,,,0.00,Wunderground v.1.15,2013-01-27 01:43:00,
2013-01-26 20:47:00,67.6,46.1,30.11,ESE,102,0.0,0.0,46,0.00,,,0.00,Wunderground v.1.15,2013-01-27 01:47:00,
2013-01-26 20:48:00,67.6,47.2,30.11,ESE,102,0.0,0.0,48,0.00,,,0.00,Wunderground v.1.15,2013-01-27 01:48:00,
2013-01-26 20:49:00,67.6,47.2,30.11,ESE,102,0.0,0.0,48,0.00,,,0.00,Wunderground v.1.15,2013-01-27 01:49:00,
2013-01-26 20:53:00,67.6,47.2,30.11,ESE,102,0.0,0.0,48,0.00,,,0.00,Wunderground v.1.15,2013-01-27 01:53:00,
2013-01-26 20:54:00,67.6,47.2,30.11,ESE,102,0.0,0.0,48,0.00,,,0.00,Wunderground v.1.15,2013-01-27 01:54:00,
2013-01-26 20:57:00,67.6,47.2,30.11,ESE,102,0.0,0.0,48,0.00,,,0.00,Wunderground v.1.15,2013-01-27 01:57:00,
2013-01-26 20:59:00,67.6,47.2,30.11,ESE,102,0.0,0.0,48,0.00,,,0.00,Wunderground v.1.15,2013-01-27 01:59:00,
2013-01-26 21:02:00,67.1,46.7,30.11,ESE,102,0.0,0.0,48,0.00,,,0.00,Wunderground v.1.15,2013-01-27 02:02:00,
2013-01-26 21:03:00,67.1,46.7,30.11,ESE,102,0.0,0.0,48,0.00,,,0.00,Wunderground v.1.15,2013-01-27 02:03:00,
2013-01-26 21:09:00,66.8,46.5,30.11,ESE,102,0.0,0.0,48,0.00,,,0.00,Wunderground v.1.15,2013-01-27 02:09:00,
2013-01-26 21:10:00,66.8,46.5,30.11,ESE,102,0.0,0.0,48,0.00,,,0.00,Wunderground v.1.15,2013-01-27 02:10:00,
2013-01-26 21:13:00,66.8,46.5,30.11,ESE,102,0.0,0.0,48,0.00,,,0.00,Wunderground v.1.15,2013-01-27 02:13:00,
2013-01-26 21:16:00,66.8,46.5,30.12,ESE,102,0.0,0.0,48,0.00,,,0.00,Wunderground v.1.15,2013-01-27 02:16:00,
2013-01-26 21:19:00,66.3,46.0,30.12,ESE,102,0.0,0.0,48,0.00,,,0.00,Wunderground v.1.15,2013-01-27 02:19:00,
2013-01-26 21:22:00,66.3,46.0,30.12,ESE,102,0.0,0.0,48,0.00,,,0.00,Wunderground v.1.15,2013-01-27 02:22:00,
2013-01-26 21:27:00,66.3,46.0,30.12,ESE,102,0.0,0.0,48,0.00,,,0.00,Wunderground v.1.15,2013-01-27 02:27:00,
2013-01-26 21:28:00,66.3,46.0,30.12,ESE,102,0.0,0.0,48,0.00,,,0.00,Wunderground v.1.15,2013-01-27 02:28:00,
2013-01-26 21:29:00,66.3,46.0,30.12,ESE,102,0.0,0.0,48,0.00,,,0.00,Wunderground v.1.15,2013-01-27 02:29:00,
2013-01-26 21:33:00,66.3,46.0,30.12,ESE,102,0.0,0.0,48,0.00,,,0.00,Wunderground v.1.15,2013-01-27 02:33:00,
2013-01-26 21:35:00,66.3,46.0,30.12,ESE,102,0.0,0.0,48,0.00,,,0.00,Wunderground v.1.15,2013-01-27 02:35:00,
2013-01-26 21:36:00,65.8,45.6,30.12,ESE,102,0.0,0.0,48,0.00,,,0.00,Wunderground v.1.15,2013-01-27 02:36:00,
2013-01-26 21:39:00,65.8,45.6,30.12,ESE,102,0.0,0.0,48,0.00,,,0.00,Wunderground v.1.15,2013-01-27 02:39:00,
2013-01-26 21:42:00,65.8,45.6,30.12,ESE,102,0.0,0.0,48,0.00,,,0.00,Wunderground v.1.15,2013-01-27 02:42:00,
2013-01-26 21:43:00,65.6,45.4,30.12,ESE,102,0.0,0.0,48,0.00,,,0.00,Wunderground v.1.15,2013-01-27 02:43:00,
2013-01-26 21:44:00,65.6,45.4,30.12,ESE,102,0.0,0.0,48,0.00,,,0.00,Wunderground v.1.15,2013-01-27 02:44:00,
2013-01-26 21:46:00,65.6,45.4,30.12,ESE,102,0.0,0.0,48,0.00,,,0.00,Wunderground v.1.15,2013-01-27 02:46:00,
2013-01-26 21:49:00,65.6,45.4,30.12,ESE,102,0.0,0.0,48,0.00,,,0.00,Wunderground v.1.15,2013-01-27 02:49:00,
2013-01-26 21:51:00,65.6,45.4,30.12,ESE,102,0.0,0.0,48,0.00,,,0.00,Wunderground v.1.15,2013-01-27 02:51:00,
2013-01-26 21:53:00,65.6,45.4,30.12,ESE,102,0.0,0.0,48,0.00,,,0.00,Wunderground v.1.15,2013-01-27 02:53:00,
2013-01-26 21:54:00,65.6,45.4,30.12,ESE,102,0.0,0.0,48,0.00,,,0.00,Wunderground v.1.15,2013-01-27 02:54:00,
2013-01-26 21:56:00,65.3,45.1,30.12,ESE,102,0.0,0.0,48,0.00,,,0.00,Wunderground v.1.15,2013-01-27 02:56:00,
2013-01-26 21:57:00,65.3,45.1,30.12,ESE,102,0.0,0.0,48,0.00,,,0.00,Wunderground v.1.15,2013-01-27 02:57:00,
2013-01-26 21:59:00,65.2,45.0,30.12,ESE,102,0.0,0.0,48,0.00,,,0.00,Wunderground v.1.15,2013-01-27 02:59:00,
2013-01-26 22:00:00,65.2,45.0,30.12,ESE,102,0.0,0.0,48,0.00,,,0.00,Wunderground v.1.15,2013-01-27 03:00:00,
2013-01-26 22:05:00,65.2,45.0,30.13,ESE,102,0.0,0.0,48,0.00,,,0.00,Wunderground v.1.15,2013-01-27 03:05:00,
2013-01-26 22:06:00,65.2,45.0,30.13,ESE,102,0.0,0.0,48,0.00,,,0.00,Wunderground v.1.15,2013-01-27 03:06:00,
2013-01-26 22:07:00,65.2,45.0,30.13,ESE,102,0.0,0.0,48,0.00,,,0.00,Wunderground v.1.15,2013-01-27 03:07:00,
2013-01-26 22:08:00,65.2,45.0,30.13,ESE,102,0.0,0.0,48,0.00,,,0.00,Wunderground v.1.15,2013-01-27 03:08:00,
2013-01-26 22:12:00,65.2,45.0,30.13,ESE,102,0.0,0.0,48,0.00,,,0.00,Wunderground v.1.15,2013-01-27 03:12:00,
2013-01-26 22:13:00,65.2,45.0,30.13,ESE,102,0.0,0.0,48,0.00,,,0.00,Wunderground v.1.15,2013-01-27 03:13:00,
2013-01-26 22:14:00,65.2,45.0,30.13,ESE,102,0.0,0.0,48,0.00,,,0.00,Wunderground v.1.15,2013-01-27 03:14:00,
2013-01-26 22:18:00,64.7,44.5,30.13,ESE,102,0.0,0.0,48,0.00,,,0.00,Wunderground v.1.15,2013-01-27 03:18:00,
2013-01-26 22:19:00,64.7,44.5,30.13,ESE,102,0.0,0.0,48,0.00,,,0.00,Wunderground v.1.15,2013-01-27 03:19:00,
2013-01-26 22:22:00,64.7,-99.9,30.13,ESE,102,0.0,0.0,255,0.00,,,0.00,Wunderground v.1.15,2013-01-27 03:22:00,
2013-01-26 22:27:00,64.5,-99.9,30.13,ESE,102,0.0,0.0,255,0.00,,,0.00,Wunderground v.1.15,2013-01-27 03:27:00,
2013-01-26 22:30:00,64.5,-99.9,30.13,ESE,102,0.0,0.0,255,0.00,,,0.00,Wunderground v.1.15,2013-01-27 03:30:00,
2013-01-26 22:32:00,64.5,-99.9,30.13,ESE,102,0.0,0.0,255,0.00,,,0.00,Wunderground v.1.15,2013-01-27 03:32:00,
2013-01-26 22:33:00,64.5,-99.9,30.13,ESE,102,0.0,0.0,255,0.00,,,0.00,Wunderground v.1.15,2013-01-27 03:33:00,
2013-01-26 22:35:00,64.5,-99.9,30.13,ESE,102,0.0,0.0,255,0.00,,,0.00,Wunderground v.1.15,2013-01-27 03:35:00,
2013-01-26 22:37:00,64.2,-99.9,30.13,ESE,102,0.0,0.0,255,0.00,,,0.00,Wunderground v.1.15,2013-01-27 03:37:00,
2013-01-26 22:39:00,64.2,-99.9,30.13,ESE,102,0.0,0.0,255,0.00,,,0.00,Wunderground v.1.15,2013-01-27 03:39:00,
2013-01-26 22:42:00,64.2,-99.9,30.13,ESE,102,0.0,0.0,255,0.00,,,0.00,Wunderground v.1.15,2013-01-27 03:42:00,
2013-01-26 22:44:00,64.2,-99.9,30.13,ESE,102,0.0,0.0,255,0.00,,,0.00,Wunderground v.1.15,2013-01-27 03:44:00,
2013-01-26 22:45:00,64.2,-99.9,30.13,ESE,102,0.0,0.0,255,0.00,,,0.00,Wunderground v.1.15,2013-01-27 03:45:00,
2013-01-26 22:46:00,64.2,-99.9,30.13,ESE,102,0.0,0.0,255,0.00,,,0.00,Wunderground v.1.15,2013-01-27 03:46:00,
2013-01-26 22:50:00,64.2,-99.9,30.13,ESE,102,0.0,0.0,255,0.00,,,0.00,Wunderground v.1.15,2013-01-27 03:50:00,
2013-01-26 22:52:00,64.2,-99.9,30.13,ESE,102,0.0,0.0,255,0.00,,,0.00,Wunderground v.1.15,2013-01-27 03:52:00,
2013-01-26 22:56:00,64.2,-99.9,30.13,ESE,102,0.0,0.0,255,0.00,,,0.00,Wunderground v.1.15,2013-01-27 03:56:00,
2013-01-26 22:58:00,64.2,-99.9,30.13,ESE,102,0.0,0.0,255,0.00,,,0.00,Wunderground v.1.15,2013-01-27 03:58:00,
2013-01-26 22:59:00,64.2,-99.9,30.13,ESE,102,0.0,0.0,255,0.00,,,0.00,Wunderground v.1.15,2013-01-27 03:59:00,
2013-01-26 23:04:00,64.2,-99.9,30.13,ESE,102,0.0,0.0,255,0.00,,,0.00,Wunderground v.1.15,2013-01-27 04:04:00,
2013-01-26 23:05:00,64.2,-99.9,30.13,ESE,102,0.0,0.0,255,0.00,,,0.00,Wunderground v.1.15,2013-01-27 04:05:00,
2013-01-26 23:06:00,64.2,-99.9,30.13,ESE,102,0.0,0.0,255,0.00,,,0.00,Wunderground v.1.15,2013-01-27 04:06:00,
2013-01-26 23:10:00,64.2,-99.9,30.13,ESE,102,0.0,0.0,255,0.00,,,0.00,Wunderground v.1.15,2013-01-27 04:10:00,
2013-01-26 23:12:00,64.2,-99.9,30.13,ESE,102,0.0,0.0,255,0.00,,,0.00,Wunderground v.1.15,2013-01-27 04:12:00,
2013-01-26 23:14:00,64.2,-99.9,30.13,ESE,102,0.0,0.0,255,0.00,,,0.00,Wunderground v.1.15,2013-01-27 04:14:00,
2013-01-26 23:18:00,64.2,-99.9,30.13,ESE,102,0.0,0.0,255,0.00,,,0.00,Wunderground v.1.15,2013-01-27 04:18:00,
2013-01-26 23:21:00,64.2,-99.9,30.13,ESE,102,0.0,0.0,255,0.00,,,0.00,Wunderground v.1.15,2013-01-27 04:21:00,
2013-01-26 23:22:00,64.2,-99.9,30.13,ESE,102,0.0,0.0,255,0.00,,,0.00,Wunderground v.1.15,2013-01-27 04:22:00,
2013-01-26 23:25:00,64.2,-99.9,30.13,ESE,102,0.0,0.0,255,0.00,,,0.00,Wunderground v.1.15,2013-01-27 04:25:00,
2013-01-26 23:27:00,64.2,-99.9,30.13,ESE,102,0.0,0.0,255,0.00,,,0.00,Wunderground v.1.15,2013-01-27 04:27:00,
2013-01-26 23:29:00,64.2,-99.9,30.13,ESE,102,0.0,0.0,255,0.00,,,0.00,Wunderground v.1.15,2013-01-27 04:29:00,
2013-01-26 23:32:00,64.2,-99.9,30.13,ESE,102,0.0,0.0,255,0.00,,,0.00,Wunderground v.1.15,2013-01-27 04:32:00,
2013-01-26 23:34:00,64.2,-99.9,30.13,ESE,102,0.0,0.0,255,0.00,,,0.00,Wunderground v.1.15,2013-01-27 04:34:00,
2013-01-26 23:37:00,64.2,-99.9,30.13,ESE,102,0.0,0.0,255,0.00,,,0.00,Wunderground v.1.15,2013-01-27 04:37:00,
2013-01-26 23:39:00,64.2,-99.9,30.13,ESE,102,0.0,0.0,255,0.00,,,0.00,Wunderground v.1.15,2013-01-27 04:39:00,
2013-01-26 23:41:00,64.2,-99.9,30.13,ESE,102,0.0,0.0,255,0.00,,,0.00,Wunderground v.1.15,2013-01-27 04:41:00,
2013-01-26 23:42:00,64.2,-99.9,30.13,ESE,102,0.0,0.0,255,0.00,,,0.00,Wunderground v.1.15,2013-01-27 04:42:00,
2013-01-26 23:43:00,64.2,-99.9,30.13,ESE,102,0.0,0.0,255,0.00,,,0.00,Wunderground v.1.15,2013-01-27 04:43:00,
2013-01-26 23:44:00,64.2,-99.9,30.13,ESE,102,0.0,0.0,255,0.00,,,0.00,Wunderground v.1.15,2013-01-27 04:44:00,
2013-01-26 23:47:00,64.2,-99.9,30.13,ESE,102,0.0,0.0,255,0.00,,,0.00,Wunderground v.1.15,2013-01-27 04:47:00,
2013-01-26 23:49:00,64.2,-99.9,30.13,ESE,102,0.0,0.0,255,0.00,,,0.00,Wunderground v.1.15,2013-01-27 04:49:00,
2013-01-26 23:51:00,63.4,-99.9,30.13,ESE,102,0.0,0.0,255,0.00,,,0.00,Wunderground v.1.15,2013-01-27 04:51:00,
2013-01-26 23:52:00,63.4,-99.9,30.13,ESE,102,0.0,0.0,255,0.00,,,0.00,Wunderground v.1.15,2013-01-27 04:52:00,
2013-01-26 23:53:00,63.4,-99.9,30.13,ESE,102,0.0,0.0,255,0.00,,,0.00,Wunderground v.1.15,2013-01-27 04:53:00,
2013-01-26 23:54:00,63.4,-99.9,30.13,ESE,102,0.0,0.0,255,0.00,,,0.00,Wunderground v.1.15,2013-01-27 04:54:00,
2013-01-26 23:58:00,63.4,-99.9,30.13,ESE,102,0.0,0.0,255,0.00,,,0.00,Wunderground v.1.15,2013-01-27 04:58:00,
2013-01-26 23:59:00,63.4,-99.9,30.13,ESE,102,0.0,0.0,255,0.00,,,0.00,Wunderground v.1.15,2013-01-27 04:59:00,